| time (UTC) | temp F | wind direction | speed knots | gust knots | rain 1hr in | rain 24hr in | rain mn in | humidity % | barometer mb |
| 20260506092151 | 59 | 248 | 0.9 | 4.3 | 0.00 | 0.35 | 0.01 | 77 | 1008.3 |
| 20260506092049 | 59 | 202 | 2.6 | 4.3 | 0.00 | 0.35 | 0.01 | 77 | 1008.3 |
| 20260506091946 | 59 | 202 | 2.6 | 4.3 | 0.00 | 0.35 | 0.01 | 77 | 1008.3 |
| 20260506091845 | 59 | 250 | 1.7 | 4.3 | 0.00 | 0.35 | 0.01 | 77 | 1008.4 |
| 20260506091642 | 58 | 145 | 0.9 | 4.3 | 0.00 | 0.35 | 0.01 | 78 | 1008.2 |
| 20260506091541 | 58 | 143 | 0.9 | 6.1 | 0.00 | 0.35 | 0.01 | 78 | 1008.3 |
| 20260506091442 | 58 | 149 | 0.9 | 6.1 | 0.00 | 0.35 | 0.01 | 78 | 1008.3 |
| 20260506091341 | 58 | 196 | 0.9 | 6.1 | 0.00 | 0.35 | 0.01 | 78 | 1008.3 |
| 20260506091237 | 58 | 233 | 1.7 | 6.1 | 0.00 | 0.35 | 0.01 | 78 | 1008.3 |
| 20260506091138 | 58 | 233 | 1.7 | 6.1 | 0.00 | 0.35 | 0.01 | 78 | 1008.2 |
| 20260506091035 | 58 | 201 | 1.7 | 6.1 | 0.00 | 0.35 | 0.01 | 78 | 1008.2 |
| 20260506090934 | 58 | 154 | 1.7 | 6.1 | 0.00 | 0.35 | 0.01 | 77 | 1008.3 |
| 20260506090834 | 58 | 182 | 3.5 | 6.1 | 0.00 | 0.35 | 0.01 | 77 | 1008.3 |
| 20260506090733 | 58 | 211 | 3.5 | 6.1 | 0.00 | 0.35 | 0.01 | 77 | 1008.3 |
| 20260506090633 | 58 | 220 | 1.7 | 6.1 | 0.00 | 0.35 | 0.01 | 78 | 1008.3 |
| 20260506090527 | 58 | 176 | 1.7 | 3.5 | 0.00 | 0.35 | 0.01 | 78 | 1008.3 |
| 20260506090426 | 58 | 216 | 1.7 | 3.5 | 0.00 | 0.35 | 0.01 | 78 | 1008.3 |
| 20260506090330 | 58 | 216 | 1.7 | 3.5 | 0.00 | 0.35 | 0.01 | 78 | 1008.3 |
| 20260506090226 | 58 | 201 | 1.7 | 3.5 | 0.00 | 0.35 | 0.01 | 79 | 1008.3 |
| 20260506090135 | 58 | 127 | 2.6 | 3.5 | 0.00 | 0.35 | 0.01 | 79 | 1008.2 |
| 20260506090030 | 58 | 145 | 1.7 | 3.5 | 0.00 | 0.35 | 0.01 | 79 | 1008.3 |
| 20260506085920 | 58 | 152 | 0.9 | 3.5 | 0.00 | 0.35 | 0.01 | 79 | 1008.2 |
| 20260506085823 | 58 | 155 | 0.9 | 3.5 | 0.00 | 0.35 | 0.01 | 78 | 1008.3 |
| 20260506085721 | 58 | 220 | 0.9 | 3.5 | 0.00 | 0.35 | 0.01 | 79 | 1008.3 |
| 20260506085616 | 58 | 220 | 1.7 | 3.5 | 0.00 | 0.35 | 0.01 | 78 | 1008.3 |
| 20260506085515 | 58 | 226 | 1.7 | 3.5 | 0.00 | 0.35 | 0.01 | 78 | 1008.3 |
| 20260506085413 | 58 | 216 | 0.9 | 3.5 | 0.00 | 0.35 | 0.01 | 80 | 1008.3 |
| 20260506085311 | 58 | 206 | 0.9 | 3.5 | 0.00 | 0.35 | 0.01 | 80 | 1008.3 |
| 20260506085212 | 58 | 206 | 0.9 | 3.5 | 0.00 | 0.35 | 0.01 | 79 | 1008.3 |
| 20260506085108 | 57 | 206 | 0.0 | 3.5 | 0.00 | 0.35 | 0.01 | 79 | 1008.3 |
| 20260506085008 | 57 | 206 | 0.0 | 3.5 | 0.00 | 0.35 | 0.01 | 79 | 1008.3 |
| 20260506084908 | 57 | 206 | 0.9 | 3.5 | 0.00 | 0.35 | 0.01 | 80 | 1008.3 |
| 20260506084805 | 57 | 201 | 1.7 | 3.5 | 0.00 | 0.35 | 0.01 | 80 | 1008.3 |
| 20260506084705 | 57 | 201 | 1.7 | 3.5 | 0.00 | 0.35 | 0.01 | 80 | 1008.3 |
| 20260506084603 | 57 | 201 | 0.9 | 3.5 | 0.00 | 0.35 | 0.01 | 80 | 1008.3 |
| 20260506084502 | 57 | 170 | 0.9 | 3.5 | 0.00 | 0.35 | 0.01 | 80 | 1008.3 |
| 20260506084401 | 57 | 141 | 1.7 | 3.5 | 0.00 | 0.35 | 0.01 | 80 | 1008.3 |
| 20260506084300 | 57 | 141 | 0.9 | 3.5 | 0.00 | 0.35 | 0.01 | 81 | 1008.3 |
| 20260506084159 | 57 | 163 | 0.9 | 3.5 | 0.00 | 0.35 | 0.01 | 81 | 1008.4 |
| 20260506084055 | 57 | 148 | 1.7 | 3.5 | 0.00 | 0.35 | 0.01 | 81 | 1008.3 |
| 20260506083955 | 57 | 162 | 1.7 | 3.5 | 0.00 | 0.35 | 0.01 | 81 | 1008.4 |
| 20260506083921 | 57 | 148 | 2.6 | 3.5 | 0.00 | 0.35 | 0.01 | 81 | 1008.3 |
| 20260506083849 | 57 | 216 | 2.6 | 7.0 | 0.00 | 0.35 | 0.01 | 80 | 1008.3 |
| 20260506083650 | 57 | 246 | 2.6 | 7.0 | 0.00 | 0.35 | 0.01 | 81 | 1008.4 |
| 20260506083549 | 57 | 216 | 2.6 | 7.0 | 0.00 | 0.35 | 0.01 | 81 | 1008.3 |
| 20260506083447 | 57 | 161 | 1.7 | 7.0 | 0.00 | 0.35 | 0.01 | 81 | 1008.3 |
| 20260506083347 | 57 | 211 | 2.6 | 7.0 | 0.00 | 0.35 | 0.01 | 82 | 1008.3 |
| 20260506083245 | 57 | 211 | 2.6 | 7.0 | 0.00 | 0.35 | 0.01 | 82 | 1008.2 |
| 20260506083142 | 57 | 216 | 1.7 | 7.0 | 0.00 | 0.35 | 0.01 | 82 | 1008.3 |
| 20260506083043 | 56 | 206 | 3.5 | 7.0 | 0.00 | 0.35 | 0.01 | 82 | 1008.4 |
| 20260506082941 | 56 | 188 | 3.5 | 7.0 | 0.00 | 0.35 | 0.01 | 81 | 1008.4 |
| 20260506082837 | 56 | 180 | 2.6 | 7.0 | 0.00 | 0.35 | 0.01 | 81 | 1008.4 |
| 20260506082638 | 56 | 185 | 1.7 | 5.2 | 0.00 | 0.35 | 0.01 | 82 | 1008.4 |
| 20260506082536 | 56 | 146 | 1.7 | 5.2 | 0.00 | 0.35 | 0.01 | 82 | 1008.3 |
| 20260506082435 | 56 | 184 | 1.7 | 5.2 | 0.00 | 0.35 | 0.01 | 82 | 1008.3 |
| 20260506082331 | 56 | 175 | 0.9 | 7.0 | 0.00 | 0.35 | 0.01 | 82 | 1008.3 |
| 20260506082131 | 56 | 206 | 2.6 | 7.0 | 0.00 | 0.35 | 0.01 | 82 | 1008.3 |
| 20260506082031 | 56 | 199 | 2.6 | 7.0 | 0.00 | 0.35 | 0.01 | 81 | 1008.3 |
| 20260506081925 | 56 | 193 | 0.9 | 7.0 | 0.00 | 0.35 | 0.01 | 82 | 1008.3 |
| 20260506081824 | 56 | 220 | 1.7 | 7.0 | 0.00 | 0.35 | 0.01 | 81 | 1008.3 |
| 20260506081727 | 56 | 220 | 2.6 | 7.0 | 0.00 | 0.35 | 0.01 | 81 | 1008.3 |
| 20260506081625 | 56 | 220 | 3.5 | 7.0 | 0.00 | 0.35 | 0.01 | 82 | 1008.3 |
| 20260506081520 | 56 | 216 | 3.5 | 7.0 | 0.00 | 0.35 | 0.01 | 81 | 1008.2 |
| 20260506081420 | 56 | 234 | 2.6 | 7.0 | 0.00 | 0.35 | 0.01 | 82 | 1008.3 |
| 20260506081321 | 56 | 250 | 2.6 | 7.0 | 0.00 | 0.35 | 0.01 | 82 | 1008.3 |
| 20260506081216 | 56 | 243 | 3.5 | 7.0 | 0.00 | 0.35 | 0.01 | 82 | 1008.3 |
| 20260506081119 | 56 | 203 | 3.5 | 6.1 | 0.00 | 0.35 | 0.01 | 82 | 1008.2 |
| 20260506081013 | 56 | 237 | 2.6 | 5.2 | 0.00 | 0.35 | 0.01 | 82 | 1008.2 |
| 20260506080912 | 56 | 182 | 1.7 | 5.2 | 0.00 | 0.35 | 0.01 | 82 | 1008.3 |
| 20260506080810 | 56 | 174 | 2.6 | 5.2 | 0.00 | 0.35 | 0.01 | 82 | 1008.2 |
| 20260506080709 | 56 | 168 | 1.7 | 5.2 | 0.00 | 0.35 | 0.01 | 82 | 1008.2 |
| 20260506080608 | 56 | 197 | 1.7 | 5.2 | 0.00 | 0.35 | 0.01 | 82 | 1008.2 |
| 20260506080507 | 56 | 200 | 3.5 | 5.2 | 0.00 | 0.35 | 0.01 | 81 | 1008.2 |
| 20260506080406 | 56 | 206 | 3.5 | 5.2 | 0.00 | 0.35 | 0.01 | 81 | 1008.3 |
| 20260506080304 | 56 | 169 | 3.5 | 5.2 | 0.00 | 0.35 | 0.01 | 81 | 1008.3 |
| 20260506080205 | 56 | 184 | 3.5 | 4.3 | 0.00 | 0.35 | 0.01 | 81 | 1008.2 |
| 20260506080105 | 56 | 172 | 1.7 | 4.3 | 0.00 | 0.35 | 0.01 | 81 | 1008.2 |
| 20260506073436 | 56 | 206 | 3.5 | 8.7 | 0.00 | 0.35 | 0.01 | 82 | 1008.0 |
| 20260506073403 | 56 | 206 | 4.3 | 8.7 | 0.00 | 0.35 | 0.01 | 82 | 1008.0 |
| 20260506073329 | 56 | 253 | 3.5 | 8.7 | 0.00 | 0.35 | 0.01 | 81 | 1008.0 |
| 20260506073129 | 55 | 251 | 2.6 | 6.1 | 0.00 | 0.35 | 0.01 | 82 | 1008.0 |
| 20260506073027 | 55 | 216 | 1.7 | 6.1 | 0.00 | 0.35 | 0.01 | 83 | 1008.0 |
| 20260506072926 | 55 | 216 | 0.9 | 6.1 | 0.00 | 0.35 | 0.01 | 83 | 1008.0 |
| 20260506072826 | 55 | 206 | 1.7 | 6.1 | 0.00 | 0.35 | 0.01 | 83 | 1007.9 |
| 20260506072623 | 55 | 197 | 1.7 | 6.1 | 0.00 | 0.35 | 0.01 | 84 | 1007.9 |
| 20260506072521 | 55 | 216 | 2.6 | 6.1 | 0.00 | 0.35 | 0.01 | 83 | 1007.9 |
| 20260506072420 | 55 | 236 | 3.5 | 6.1 | 0.00 | 0.35 | 0.01 | 83 | 1007.8 |
| 20260506072319 | 55 | 216 | 3.5 | 6.1 | 0.00 | 0.35 | 0.01 | 83 | 1007.9 |
| 20260506072118 | 55 | 237 | 3.5 | 6.1 | 0.00 | 0.35 | 0.01 | 83 | 1007.9 |
| 20260506072014 | 55 | 269 | 2.6 | 5.2 | 0.00 | 0.35 | 0.01 | 83 | 1007.8 |
| 20260506071923 | 55 | 264 | 2.6 | 5.2 | 0.00 | 0.35 | 0.01 | 84 | 1007.9 |
| 20260506071850 | 55 | 206 | 3.5 | 5.2 | 0.00 | 0.35 | 0.01 | 83 | 1007.8 |
| 20260506071711 | 55 | 199 | 2.6 | 5.2 | 0.00 | 0.35 | 0.01 | 83 | 1007.8 |
| 20260506071611 | 55 | 216 | 1.7 | 5.2 | 0.00 | 0.35 | 0.01 | 84 | 1007.8 |
| 20260506071502 | 55 | 216 | 2.6 | 5.2 | 0.00 | 0.35 | 0.01 | 84 | 1007.8 |
| 20260506071400 | 55 | 201 | 2.6 | 7.8 | 0.00 | 0.35 | 0.01 | 84 | 1007.8 |
| 20260506071259 | 55 | 137 | 1.7 | 7.8 | 0.00 | 0.35 | 0.01 | 83 | 1007.8 |
| 20260506071158 | 55 | 206 | 2.6 | 7.8 | 0.00 | 0.35 | 0.01 | 83 | 1007.9 |
| 20260506071059 | 55 | 263 | 3.5 | 7.8 | 0.00 | 0.35 | 0.01 | 83 | 1007.8 |
| 20260506070955 | 55 | 253 | 3.5 | 7.8 | 0.00 | 0.35 | 0.01 | 83 | 1007.8 |
| 20260506070854 | 55 | 249 | 2.6 | 7.8 | 0.00 | 0.35 | 0.01 | 83 | 1007.8 |
| 20260506070753 | 55 | 249 | 3.5 | 7.8 | 0.00 | 0.35 | 0.01 | 83 | 1007.8 |
| 20260506070651 | 55 | 239 | 4.3 | 7.8 | 0.00 | 0.35 | 0.01 | 83 | 1007.8 |
| 20260506070550 | 55 | 250 | 3.5 | 7.8 | 0.00 | 0.35 | 0.01 | 83 | 1007.8 |
| 20260506070449 | 55 | 229 | 1.7 | 7.8 | 0.00 | 0.35 | 0.01 | 84 | 1007.9 |
| 20260506070348 | 55 | 216 | 0.9 | 7.8 | 0.00 | 0.35 | 0.01 | 84 | 1007.8 |
| 20260506070246 | 55 | 220 | 1.7 | 7.8 | 0.00 | 0.35 | 0.01 | 83 | 1007.8 |
| 20260506070145 | 55 | 220 | 2.6 | 7.8 | 0.00 | 0.35 | 0.01 | 83 | 1007.7 |
| 20260506062448 | 53 | 239 | 2.6 | 5.2 | 0.00 | 0.35 | 0.01 | 88 | 1007.9 |
| 20260506062347 | 53 | 211 | 2.6 | 5.2 | 0.00 | 0.35 | 0.01 | 88 | 1007.9 |
| 20260506062245 | 53 | 200 | 2.6 | 5.2 | 0.00 | 0.35 | 0.01 | 88 | 1007.9 |
| 20260506062143 | 53 | 237 | 2.6 | 5.2 | 0.00 | 0.35 | 0.01 | 88 | 1008.0 |
| 20260506062044 | 53 | 216 | 1.7 | 3.5 | 0.00 | 0.35 | 0.01 | 88 | 1008.0 |
| 20260506061942 | 53 | 239 | 1.7 | 3.5 | 0.00 | 0.35 | 0.01 | 88 | 1008.0 |
| 20260506061907 | 53 | 203 | 0.9 | 3.5 | 0.00 | 0.35 | 0.01 | 88 | 1007.9 |
| 20260506061835 | 53 | 198 | 0.9 | 3.5 | 0.00 | 0.35 | 0.01 | 88 | 1008.0 |
| 20260506061633 | 53 | 198 | 1.7 | 3.5 | 0.00 | 0.35 | 0.01 | 88 | 1008.0 |
| 20260506061536 | 53 | 198 | 1.7 | 4.3 | 0.00 | 0.35 | 0.01 | 88 | 1008.0 |
| 20260506061430 | 53 | 191 | 1.7 | 4.3 | 0.00 | 0.35 | 0.01 | 88 | 1008.0 |
| 20260506061333 | 52 | 222 | 0.9 | 4.3 | 0.00 | 0.35 | 0.01 | 88 | 1008.0 |
| 20260506061233 | 52 | 231 | 1.7 | 4.3 | 0.00 | 0.35 | 0.01 | 88 | 1008.0 |
| 20260506061132 | 52 | 231 | 2.6 | 4.3 | 0.00 | 0.35 | 0.01 | 88 | 1008.0 |
| 20260506061029 | 52 | 239 | 1.7 | 4.3 | 0.00 | 0.35 | 0.01 | 88 | 1008.1 |
| 20260506060929 | 52 | 220 | 0.9 | 4.3 | 0.00 | 0.35 | 0.01 | 88 | 1008.0 |
| 20260506060827 | 52 | 198 | 1.7 | 4.3 | 0.00 | 0.35 | 0.01 | 88 | 1008.0 |
| 20260506060720 | 52 | 195 | 2.6 | 4.3 | 0.00 | 0.35 | 0.01 | 88 | 1008.1 |
| 20260506060619 | 52 | 216 | 2.6 | 4.3 | 0.00 | 0.35 | 0.01 | 88 | 1008.1 |
| 20260506060523 | 52 | 206 | 2.6 | 4.3 | 0.00 | 0.35 | 0.01 | 88 | 1008.1 |
| 20260506060422 | 52 | 216 | 1.7 | 4.3 | 0.00 | 0.35 | 0.01 | 88 | 1008.1 |
| 20260506060329 | 52 | 216 | 1.7 | 4.3 | 0.00 | 0.35 | 0.01 | 88 | 1008.1 |
| 20260506060217 | 52 | 179 | 0.9 | 2.6 | 0.00 | 0.35 | 0.01 | 88 | 1008.2 |
| 20260506060116 | 52 | 200 | 0.9 | 2.6 | 0.00 | 0.35 | 0.01 | 88 | 1008.1 |
| 20260506051411 | 52 | 261 | 3.5 | 9.6 | 0.00 | 0.35 | 0.01 | 89 | 1008.1 |
| 20260506051307 | 52 | 230 | 4.3 | 9.6 | 0.00 | 0.35 | 0.01 | 89 | 1008.1 |
| 20260506051207 | 52 | 224 | 3.5 | 9.6 | 0.00 | 0.35 | 0.01 | 89 | 1008.2 |
| 20260506051105 | 52 | 253 | 3.5 | 9.6 | 0.00 | 0.35 | 0.01 | 89 | 1008.2 |
| 20260506051006 | 52 | 241 | 3.5 | 9.6 | 0.00 | 0.35 | 0.01 | 89 | 1008.1 |
| 20260506050906 | 52 | 247 | 4.3 | 9.6 | 0.00 | 0.35 | 0.01 | 89 | 1008.1 |
| 20260506050803 | 52 | 276 | 5.2 | 9.6 | 0.00 | 0.35 | 0.01 | 89 | 1008.1 |
| 20260506050659 | 52 | 231 | 6.1 | 9.6 | 0.00 | 0.35 | 0.01 | 89 | 1008.1 |
| 20260506050602 | 52 | 216 | 6.1 | 9.6 | 0.00 | 0.35 | 0.01 | 90 | 1008.1 |
| 20260506050501 | 52 | 243 | 5.2 | 9.6 | 0.00 | 0.35 | 0.01 | 90 | 1008.1 |
| 20260506050359 | 52 | 266 | 4.3 | 7.8 | 0.00 | 0.35 | 0.01 | 90 | 1008.1 |
| 20260506050258 | 52 | 245 | 3.5 | 7.8 | 0.00 | 0.35 | 0.01 | 90 | 1008.2 |
| 20260506050157 | 52 | 237 | 3.5 | 7.8 | 0.00 | 0.35 | 0.01 | 90 | 1008.1 |
| 20260506045043 | 52 | 253 | 3.5 | 8.7 | 0.00 | 0.35 | 0.01 | 91 | 1008.1 |
| 20260506044942 | 52 | 206 | 5.2 | 8.7 | 0.00 | 0.35 | 0.01 | 91 | 1008.1 |
| 20260506044840 | 52 | 270 | 6.1 | 8.7 | 0.00 | 0.35 | 0.01 | 91 | 1008.1 |
| 20260506044738 | 52 | 260 | 4.3 | 8.7 | 0.00 | 0.35 | 0.01 | 91 | 1008.1 |
| 20260506044638 | 52 | 222 | 3.5 | 7.8 | 0.01 | 0.35 | 0.01 | 91 | 1008.0 |
| 20260506044536 | 52 | 265 | 4.3 | 8.7 | 0.01 | 0.35 | 0.01 | 91 | 1008.1 |
| 20260506044435 | 52 | 239 | 3.5 | 8.7 | 0.01 | 0.35 | 0.01 | 91 | 1008.0 |
| 20260506044334 | 52 | 260 | 3.5 | 8.7 | 0.01 | 0.35 | 0.01 | 91 | 1008.0 |
| 20260506044232 | 52 | 221 | 3.5 | 8.7 | 0.01 | 0.35 | 0.01 | 91 | 1008.0 |
| 20260506044133 | 52 | 238 | 4.3 | 9.6 | 0.01 | 0.35 | 0.01 | 91 | 1008.0 |
| 20260506044029 | 52 | 255 | 5.2 | 9.6 | 0.01 | 0.35 | 0.01 | 91 | 1008.0 |
| 20260506043928 | 52 | 247 | 5.2 | 9.6 | 0.01 | 0.35 | 0.01 | 91 | 1007.9 |
| 20260506043837 | 52 | 222 | 3.5 | 9.6 | 0.01 | 0.35 | 0.01 | 92 | 1007.9 |
| 20260506043804 | 52 | 228 | 5.2 | 9.6 | 0.01 | 0.35 | 0.01 | 92 | 1007.8 |
| 20260506043729 | 52 | 223 | 6.1 | 9.6 | 0.01 | 0.35 | 0.01 | 91 | 1007.9 |
| 20260506043523 | 52 | 257 | 3.5 | 9.6 | 0.01 | 0.35 | 0.01 | 91 | 1007.8 |
| 20260506043422 | 52 | 211 | 5.2 | 9.6 | 0.01 | 0.35 | 0.01 | 91 | 1007.8 |
| 20260506043320 | 51 | 224 | 5.2 | 9.6 | 0.01 | 0.35 | 0.01 | 92 | 1007.8 |
| 20260506043219 | 51 | 249 | 3.5 | 9.6 | 0.01 | 0.35 | 0.01 | 92 | 1007.8 |
| 20260506043118 | 51 | 254 | 3.5 | 6.1 | 0.01 | 0.35 | 0.01 | 92 | 1007.8 |
| 20260506043016 | 51 | 253 | 3.5 | 6.1 | 0.01 | 0.35 | 0.01 | 92 | 1007.8 |
| 20260506042915 | 51 | 274 | 3.5 | 7.0 | 0.01 | 0.35 | 0.01 | 92 | 1007.8 |
| 20260506042814 | 51 | 244 | 3.5 | 8.7 | 0.01 | 0.35 | 0.01 | 92 | 1007.7 |
| 20260506042713 | 51 | 222 | 4.3 | 8.7 | 0.01 | 0.35 | 0.01 | 92 | 1007.8 |
| 20260506042611 | 51 | 216 | 4.3 | 8.7 | 0.01 | 0.35 | 0.01 | 92 | 1007.8 |
| 20260506042512 | 51 | 256 | 4.3 | 8.7 | 0.01 | 0.35 | 0.01 | 92 | 1007.8 |
| 20260506042409 | 51 | 241 | 3.5 | 8.7 | 0.01 | 0.35 | 0.01 | 92 | 1007.7 |
| 20260506042307 | 51 | 241 | 2.6 | 8.7 | 0.01 | 0.35 | 0.01 | 92 | 1007.8 |
| 20260506042211 | 51 | 249 | 3.5 | 8.7 | 0.01 | 0.35 | 0.01 | 92 | 1007.8 |
| 20260506042104 | 51 | 257 | 4.3 | 9.6 | 0.01 | 0.35 | 0.01 | 92 | 1007.7 |
| 20260506042004 | 51 | 253 | 4.3 | 10.4 | 0.01 | 0.35 | 0.01 | 92 | 1007.7 |
| 20260506041902 | 51 | 228 | 4.3 | 10.4 | 0.01 | 0.35 | 0.01 | 92 | 1007.8 |
| 20260506041800 | 51 | 248 | 5.2 | 10.4 | 0.01 | 0.35 | 0.01 | 92 | 1007.8 |
| 20260506041659 | 51 | 235 | 3.5 | 10.4 | 0.01 | 0.35 | 0.01 | 92 | 1007.8 |
| 20260506041558 | 51 | 237 | 2.6 | 10.4 | 0.01 | 0.35 | 0.01 | 92 | 1007.8 |
| 20260506041456 | 51 | 193 | 3.5 | 10.4 | 0.01 | 0.35 | 0.01 | 92 | 1007.7 |
| 20260506041355 | 51 | 240 | 5.2 | 10.4 | 0.01 | 0.35 | 0.01 | 92 | 1007.7 |
| 20260506041309 | 51 | 259 | 5.2 | 10.4 | 0.01 | 0.35 | 0.01 | 92 | 1007.6 |
| 20260506041236 | 51 | 246 | 4.3 | 10.4 | 0.01 | 0.35 | 0.01 | 92 | 1007.6 |
| 20260506041052 | 51 | 255 | 5.2 | 8.7 | 0.01 | 0.35 | 0.01 | 92 | 1007.6 |
| 20260506040950 | 51 | 245 | 5.2 | 8.7 | 0.01 | 0.35 | 0.01 | 92 | 1007.5 |
| 20260506040849 | 51 | 243 | 3.5 | 8.7 | 0.01 | 0.35 | 0.01 | 92 | 1007.5 |
| 20260506040748 | 51 | 249 | 3.5 | 8.7 | 0.01 | 0.35 | 0.01 | 92 | 1007.4 |
| 20260506040646 | 51 | 272 | 3.5 | 8.7 | 0.01 | 0.35 | 0.01 | 92 | 1007.5 |
| 20260506040541 | 51 | 216 | 3.5 | 8.7 | 0.01 | 0.35 | 0.01 | 92 | 1007.5 |
| 20260506040441 | 51 | 251 | 3.5 | 7.0 | 0.01 | 0.35 | 0.01 | 92 | 1007.5 |
| 20260506040340 | 51 | 224 | 3.5 | 7.0 | 0.01 | 0.35 | 0.01 | 92 | 1007.5 |
| 20260506040240 | 52 | 230 | 3.5 | 7.0 | 0.01 | 0.35 | 0.01 | 92 | 1007.6 |
| 20260506040138 | 51 | 230 | 5.2 | 7.0 | 0.01 | 0.35 | 0.01 | 92 | 1007.6 |
| 20260506040036 | 52 | 247 | 4.3 | 7.0 | 0.01 | 0.35 | 0.01 | 92 | 1007.6 |
| 20260506035937 | 51 | 239 | 3.5 | 7.0 | 0.01 | 0.35 | 0.01 | 92 | 1007.6 |
| 20260506035836 | 51 | 226 | 4.3 | 7.0 | 0.01 | 0.35 | 0.01 | 92 | 1007.6 |
| 20260506035734 | 52 | 216 | 3.5 | 7.0 | 0.01 | 0.35 | 0.01 | 92 | 1007.6 |
| 20260506035633 | 52 | 233 | 2.6 | 7.0 | 0.01 | 0.35 | 0.01 | 92 | 1007.5 |
| 20260506035532 | 52 | 261 | 1.7 | 7.0 | 0.01 | 0.35 | 0.01 | 92 | 1007.6 |
| 20260506035431 | 52 | 206 | 1.7 | 7.0 | 0.01 | 0.35 | 0.01 | 92 | 1007.5 |
| 20260506035329 | 52 | 228 | 1.7 | 7.0 | 0.01 | 0.35 | 0.01 | 92 | 1007.6 |
| 20260506035228 | 51 | 246 | 0.9 | 7.0 | 0.01 | 0.35 | 0.01 | 92 | 1007.6 |
| 20260506035127 | 51 | 239 | 0.9 | 7.0 | 0.01 | 0.35 | 0.01 | 92 | 1007.6 |
| 20260506035025 | 51 | 211 | 1.7 | 7.0 | 0.01 | 0.35 | 0.01 | 92 | 1007.6 |
| 20260506034924 | 52 | 211 | 3.5 | 7.0 | 0.01 | 0.35 | 0.01 | 92 | 1007.6 |
| 20260506034823 | 52 | 202 | 2.6 | 7.0 | 0.01 | 0.35 | 0.01 | 92 | 1007.6 |
| 20260506034722 | 51 | 230 | 1.7 | 4.3 | 0.01 | 0.35 | 0.01 | 92 | 1007.6 |
| 20260506034620 | 51 | 248 | 1.7 | 4.3 | 0.00 | 0.34 | 0.00 | 92 | 1007.6 |
| 20260506034518 | 51 | 216 | 1.7 | 4.3 | 0.00 | 0.34 | 0.00 | 92 | 1007.6 |
| 20260506034412 | 51 | 216 | 1.7 | 4.3 | 0.00 | 0.34 | 0.00 | 92 | 1007.6 |
| 20260506034316 | 51 | 216 | 2.6 | 4.3 | 0.00 | 0.34 | 0.00 | 92 | 1007.6 |
| 20260506034215 | 51 | 201 | 1.7 | 4.3 | 0.00 | 0.34 | 0.00 | 92 | 1007.6 |
| 20260506034114 | 51 | 216 | 1.7 | 4.3 | 0.00 | 0.34 | 0.00 | 92 | 1007.5 |
| 20260506034012 | 51 | 206 | 1.7 | 4.3 | 0.00 | 0.34 | 0.00 | 92 | 1007.6 |
| 20260506033910 | 51 | 201 | 0.9 | 4.3 | 0.00 | 0.34 | 0.00 | 92 | 1007.5 |
| 20260506033810 | 51 | 201 | 0.0 | 4.3 | 0.00 | 0.34 | 0.00 | 92 | 1007.6 |
| 20260506033708 | 51 | 174 | 1.7 | 4.3 | 0.00 | 0.34 | 0.00 | 92 | 1007.5 |
| 20260506033608 | 51 | 174 | 1.7 | 4.3 | 0.00 | 0.34 | 0.00 | 92 | 1007.5 |
| 20260506033506 | 51 | 222 | 0.9 | 4.3 | 0.00 | 0.34 | 0.00 | 92 | 1007.5 |
| 20260506033405 | 51 | 222 | 0.9 | 4.3 | 0.00 | 0.34 | 0.00 | 92 | 1007.5 |
| 20260506033304 | 51 | 245 | 1.7 | 4.3 | 0.00 | 0.34 | 0.00 | 92 | 1007.5 |
| 20260506033201 | 51 | 201 | 1.7 | 4.3 | 0.00 | 0.34 | 0.00 | 92 | 1007.6 |
| 20260506033104 | 51 | 178 | 0.9 | 4.3 | 0.00 | 0.34 | 0.00 | 92 | 1007.6 |
| 20260506033000 | 51 | 220 | 0.9 | 3.5 | 0.00 | 0.34 | 0.00 | 92 | 1007.6 |
| 20260506032859 | 51 | 247 | 0.9 | 3.5 | 0.00 | 0.34 | 0.00 | 92 | 1007.7 |
| 20260506032754 | 51 | 243 | 0.9 | 3.5 | 0.00 | 0.34 | 0.00 | 92 | 1007.7 |
| 20260506032655 | 51 | 239 | 0.9 | 3.5 | 0.00 | 0.34 | 0.00 | 92 | 1007.7 |
| 20260506032455 | 51 | 248 | 1.7 | 5.2 | 0.00 | 0.34 | 0.00 | 92 | 1007.7 |
| 20260506032349 | 51 | 251 | 1.7 | 5.2 | 0.00 | 0.34 | 0.00 | 92 | 1007.8 |
| 20260506032247 | 51 | 239 | 0.9 | 5.2 | 0.00 | 0.34 | 0.00 | 91 | 1007.8 |
| 20260506032146 | 51 | 255 | 0.9 | 5.2 | 0.00 | 0.34 | 0.00 | 91 | 1007.8 |
| 20260506032047 | 51 | 230 | 1.7 | 5.2 | 0.00 | 0.34 | 0.00 | 91 | 1007.7 |
| 20260506031951 | 51 | 230 | 1.7 | 6.1 | 0.00 | 0.34 | 0.00 | 91 | 1007.7 |
| 20260506031846 | 51 | 206 | 1.7 | 6.1 | 0.00 | 0.34 | 0.00 | 91 | 1007.7 |
| 20260506031744 | 51 | 206 | 3.5 | 6.1 | 0.00 | 0.34 | 0.00 | 91 | 1007.8 |
| 20260506031639 | 51 | 243 | 2.6 | 6.1 | 0.00 | 0.34 | 0.00 | 91 | 1007.8 |
| 20260506031537 | 51 | 236 | 0.9 | 6.1 | 0.00 | 0.34 | 0.00 | 91 | 1007.8 |
| 20260506031436 | 51 | 220 | 0.9 | 6.1 | 0.00 | 0.34 | 0.00 | 91 | 1007.7 |
| 20260506031335 | 51 | 220 | 0.9 | 6.1 | 0.00 | 0.34 | 0.00 | 91 | 1007.7 |
| 20260506031234 | 51 | 216 | 0.9 | 6.1 | 0.00 | 0.34 | 0.00 | 92 | 1007.7 |
| 20260506031137 | 51 | 216 | 2.6 | 6.1 | 0.00 | 0.34 | 0.00 | 91 | 1007.8 |
| 20260506031032 | 51 | 251 | 2.6 | 6.1 | 0.00 | 0.34 | 0.00 | 91 | 1007.7 |
| 20260506030932 | 51 | 206 | 1.7 | 6.1 | 0.00 | 0.34 | 0.00 | 91 | 1007.7 |
| 20260506030834 | 51 | 216 | 1.7 | 6.1 | 0.00 | 0.34 | 0.00 | 91 | 1007.7 |
| 20260506030732 | 51 | 244 | 2.6 | 6.1 | 0.00 | 0.34 | 0.00 | 91 | 1007.7 |
| 20260506030625 | 51 | 250 | 2.6 | 6.1 | 0.00 | 0.34 | 0.00 | 91 | 1007.7 |
| 20260506030523 | 51 | 216 | 1.7 | 6.1 | 0.00 | 0.34 | 0.00 | 91 | 1007.7 |
| 20260506030423 | 51 | 203 | 1.7 | 6.1 | 0.00 | 0.34 | 0.00 | 91 | 1007.7 |
| 20260506030321 | 51 | 202 | 1.7 | 6.1 | 0.00 | 0.34 | 0.00 | 91 | 1007.7 |
| 20260506030220 | 51 | 216 | 2.6 | 6.1 | 0.00 | 0.34 | 0.00 | 91 | 1007.7 |
| 20260506030124 | 51 | 220 | 1.7 | 7.0 | 0.00 | 0.34 | 0.00 | 91 | 1007.6 |
| 20260506030013 | 51 | 216 | 1.7 | 7.0 | 0.00 | 0.34 | 0.00 | 91 | 1007.7 |
| 20260506025915 | 51 | 177 | 1.7 | 7.0 | 0.00 | 0.34 | 0.00 | 91 | 1007.6 |
| 20260506025814 | 51 | 197 | 1.7 | 7.0 | 0.00 | 0.34 | 0.00 | 91 | 1007.6 |
| 20260506025713 | 51 | 176 | 1.7 | 7.0 | 0.00 | 0.34 | 0.00 | 91 | 1007.7 |
| 20260506025611 | 51 | 233 | 2.6 | 7.0 | 0.00 | 0.34 | 0.00 | 91 | 1007.8 |
| 20260506025511 | 51 | 245 | 2.6 | 7.0 | 0.00 | 0.34 | 0.00 | 91 | 1007.7 |
| 20260506025410 | 51 | 203 | 3.5 | 7.0 | 0.00 | 0.34 | 0.00 | 91 | 1007.7 |
| 20260506025309 | 51 | 191 | 3.5 | 7.0 | 0.00 | 0.34 | 0.00 | 91 | 1007.7 |
| 20260506025208 | 51 | 206 | 1.7 | 7.0 | 0.00 | 0.34 | 0.00 | 91 | 1007.7 |
| 20260506025106 | 51 | 206 | 2.6 | 7.0 | 0.00 | 0.34 | 0.00 | 91 | 1007.7 |
| 20260506025004 | 51 | 220 | 3.5 | 7.0 | 0.00 | 0.34 | 0.00 | 91 | 1007.7 |
| 20260506024912 | 51 | 216 | 2.6 | 7.0 | 0.00 | 0.34 | 0.00 | 91 | 1007.7 |
| 20260506024802 | 51 | 222 | 2.6 | 5.2 | 0.00 | 0.34 | 0.00 | 91 | 1007.7 |
| 20260506024701 | 51 | 216 | 2.6 | 5.2 | 0.00 | 0.34 | 0.00 | 91 | 1007.7 |
| 20260506024559 | 51 | 191 | 2.6 | 5.2 | 0.00 | 0.34 | 0.00 | 91 | 1007.7 |
| 20260506024453 | 51 | 199 | 1.7 | 5.2 | 0.00 | 0.34 | 0.00 | 91 | 1007.7 |
| 20260506024352 | 51 | 216 | 1.7 | 5.2 | 0.00 | 0.34 | 0.00 | 91 | 1007.7 |
| 20260506024251 | 51 | 203 | 1.7 | 5.2 | 0.00 | 0.34 | 0.00 | 91 | 1007.7 |
| 20260506024149 | 51 | 170 | 2.6 | 5.2 | 0.00 | 0.34 | 0.00 | 91 | 1007.7 |
| 20260506023949 | 51 | 220 | 1.7 | 5.2 | 0.00 | 0.34 | 0.00 | 91 | 1007.7 |
| 20260506023850 | 51 | 206 | 1.7 | 5.2 | 0.00 | 0.34 | 0.00 | 91 | 1007.7 |
| 20260506023753 | 51 | 247 | 2.6 | 5.2 | 0.00 | 0.34 | 0.00 | 91 | 1007.6 |
| 20260506023721 | 51 | 211 | 1.7 | 5.2 | 0.00 | 0.34 | 0.00 | 91 | 1007.7 |
| 20260506023646 | 51 | 224 | 1.7 | 6.1 | 0.00 | 0.34 | 0.00 | 91 | 1007.7 |
| 20260506023440 | 51 | 203 | 1.7 | 6.1 | 0.00 | 0.34 | 0.00 | 91 | 1007.7 |
| 20260506023341 | 51 | 211 | 1.7 | 6.1 | 0.00 | 0.34 | 0.00 | 91 | 1007.7 |
| 20260506023240 | 51 | 211 | 0.9 | 6.1 | 0.00 | 0.34 | 0.00 | 91 | 1007.7 |
| 20260506023136 | 51 | 211 | 0.9 | 6.1 | 0.00 | 0.34 | 0.00 | 91 | 1007.6 |
| 20260506022937 | 51 | 197 | 1.7 | 6.1 | 0.00 | 0.34 | 0.00 | 91 | 1007.7 |
| 20260506022841 | 51 | 232 | 1.7 | 6.1 | 0.00 | 0.34 | 0.00 | 91 | 1007.7 |
| 20260506022734 | 51 | 216 | 2.6 | 6.1 | 0.00 | 0.34 | 0.00 | 91 | 1007.7 |
| 20260506022632 | 51 | 223 | 1.7 | 6.1 | 0.00 | 0.34 | 0.00 | 91 | 1007.6 |
| 20260506022531 | 51 | 216 | 1.7 | 4.3 | 0.00 | 0.34 | 0.00 | 91 | 1007.7 |
| 20260506022434 | 51 | 211 | 1.7 | 4.3 | 0.00 | 0.34 | 0.00 | 91 | 1007.7 |
| 20260506022329 | 51 | 216 | 1.7 | 4.3 | 0.00 | 0.34 | 0.00 | 91 | 1007.7 |
| 20260506022227 | 51 | 222 | 2.6 | 4.3 | 0.00 | 0.34 | 0.00 | 91 | 1007.7 |
| 20260506022126 | 51 | 220 | 2.6 | 4.3 | 0.00 | 0.34 | 0.00 | 91 | 1007.7 |
| 20260506022026 | 51 | 206 | 1.7 | 3.5 | 0.00 | 0.34 | 0.00 | 91 | 1007.7 |
| 20260506021922 | 51 | 239 | 1.7 | 7.0 | 0.00 | 0.34 | 0.00 | 91 | 1007.7 |
| 20260506021823 | 51 | 237 | 2.6 | 7.0 | 0.00 | 0.34 | 0.00 | 91 | 1007.6 |
| 20260506021722 | 51 | 216 | 1.7 | 7.0 | 0.00 | 0.34 | 0.00 | 91 | 1007.7 |
| 20260506021621 | 51 | 216 | 1.7 | 7.0 | 0.00 | 0.34 | 0.00 | 91 | 1007.7 |
| 20260506021520 | 51 | 203 | 1.7 | 7.0 | 0.00 | 0.34 | 0.00 | 91 | 1007.7 |
| 20260506021418 | 51 | 203 | 1.7 | 7.0 | 0.00 | 0.34 | 0.00 | 91 | 1007.7 |
| 20260506021317 | 51 | 172 | 1.7 | 7.0 | 0.00 | 0.34 | 0.00 | 91 | 1007.7 |
| 20260506021214 | 51 | 216 | 2.6 | 7.0 | 0.00 | 0.34 | 0.00 | 91 | 1007.8 |
| 20260506021113 | 51 | 180 | 3.5 | 7.0 | 0.00 | 0.34 | 0.00 | 91 | 1007.8 |
| 20260506021011 | 51 | 206 | 1.7 | 7.0 | 0.00 | 0.34 | 0.00 | 91 | 1007.8 |
| 20260506020912 | 51 | 200 | 1.7 | 5.2 | 0.00 | 0.34 | 0.00 | 91 | 1007.8 |
| 20260506020810 | 51 | 216 | 1.7 | 5.2 | 0.00 | 0.34 | 0.00 | 91 | 1007.8 |
| 20260506020709 | 51 | 216 | 1.7 | 5.2 | 0.00 | 0.34 | 0.00 | 91 | 1007.9 |
| 20260506020606 | 51 | 206 | 0.9 | 5.2 | 0.00 | 0.34 | 0.00 | 91 | 1007.8 |
| 20260506020505 | 51 | 237 | 0.9 | 7.8 | 0.00 | 0.34 | 0.00 | 91 | 1007.9 |
| 20260506020403 | 51 | 185 | 0.9 | 7.8 | 0.00 | 0.34 | 0.00 | 92 | 1007.8 |
| 20260506020258 | 51 | 211 | 1.7 | 7.8 | 0.00 | 0.34 | 0.00 | 92 | 1007.8 |
| 20260506020200 | 51 | 211 | 2.6 | 7.8 | 0.00 | 0.34 | 0.00 | 92 | 1007.8 |
| 20260506020104 | 51 | 216 | 2.6 | 7.8 | 0.00 | 0.34 | 0.00 | 91 | 1007.8 |
| 20260506015959 | 51 | 216 | 2.6 | 7.8 | 0.00 | 0.34 | 0.00 | 91 | 1007.8 |
| 20260506015854 | 51 | 195 | 3.5 | 7.8 | 0.00 | 0.34 | 0.00 | 92 | 1007.8 |
| 20260506015750 | 51 | 180 | 4.3 | 7.8 | 0.00 | 0.34 | 0.00 | 91 | 1007.8 |
| 20260506015648 | 51 | 200 | 4.3 | 7.8 | 0.00 | 0.34 | 0.00 | 91 | 1007.9 |
| 20260506015547 | 51 | 193 | 3.5 | 7.8 | 0.00 | 0.34 | 0.00 | 92 | 1007.8 |
| 20260506015446 | 51 | 176 | 3.5 | 7.0 | 0.00 | 0.34 | 0.00 | 92 | 1007.8 |
| 20260506015344 | 51 | 188 | 3.5 | 7.0 | 0.00 | 0.34 | 0.00 | 92 | 1007.8 |
| 20260506015243 | 51 | 206 | 3.5 | 7.0 | 0.00 | 0.34 | 0.00 | 92 | 1007.8 |
| 20260506015142 | 51 | 189 | 3.5 | 7.0 | 0.00 | 0.34 | 0.00 | 92 | 1007.8 |
| 20260506015041 | 51 | 195 | 2.6 | 7.0 | 0.00 | 0.34 | 0.00 | 92 | 1007.8 |
| 20260506014934 | 51 | 203 | 1.7 | 5.2 | 0.00 | 0.34 | 0.00 | 92 | 1007.8 |
| 20260506014832 | 51 | 199 | 2.6 | 5.2 | 0.00 | 0.34 | 0.00 | 92 | 1007.7 |
| 20260506014737 | 51 | 206 | 2.6 | 5.2 | 0.00 | 0.34 | 0.00 | 92 | 1007.8 |
| 20260506014704 | 51 | 206 | 2.6 | 5.2 | 0.00 | 0.34 | 0.00 | 92 | 1007.8 |
| 20260506014633 | 51 | 211 | 1.7 | 6.1 | 0.00 | 0.34 | 0.00 | 92 | 1007.8 |
| 20260506014427 | 51 | 230 | 1.7 | 6.1 | 0.00 | 0.34 | 0.00 | 92 | 1007.7 |
| 20260506014328 | 51 | 220 | 1.7 | 6.1 | 0.00 | 0.34 | 0.00 | 92 | 1007.8 |
| 20260506014201 | 51 | 172 | 1.7 | 6.1 | 0.00 | 0.34 | 0.00 | 92 | 1007.8 |
| 20260506014128 | 51 | 206 | 2.6 | 6.1 | 0.00 | 0.34 | 0.00 | 92 | 1007.8 |
| 20260506013923 | 51 | 234 | 2.6 | 6.1 | 0.00 | 0.34 | 0.00 | 92 | 1007.8 |
| 20260506013819 | 51 | 206 | 1.7 | 6.1 | 0.00 | 0.34 | 0.00 | 92 | 1007.8 |
| 20260506013718 | 51 | 237 | 2.6 | 6.1 | 0.00 | 0.34 | 0.00 | 92 | 1007.8 |
| 20260506013617 | 51 | 216 | 2.6 | 6.1 | 0.00 | 0.34 | 0.00 | 92 | 1007.8 |
| 20260506013515 | 51 | 230 | 2.6 | 5.2 | 0.00 | 0.34 | 0.00 | 92 | 1007.8 |
| 20260506013418 | 51 | 216 | 1.7 | 7.0 | 0.00 | 0.34 | 0.00 | 92 | 1007.8 |
| 20260506013314 | 51 | 216 | 1.7 | 7.0 | 0.00 | 0.34 | 0.00 | 92 | 1007.8 |
| 20260506013213 | 51 | 216 | 2.6 | 7.0 | 0.00 | 0.34 | 0.00 | 92 | 1007.8 |
| 20260506013112 | 51 | 216 | 1.7 | 7.0 | 0.00 | 0.34 | 0.00 | 92 | 1007.8 |
| 20260506013010 | 51 | 260 | 1.7 | 7.0 | 0.00 | 0.34 | 0.00 | 92 | 1007.8 |
| 20260506012910 | 51 | 216 | 1.7 | 7.0 | 0.00 | 0.34 | 0.00 | 92 | 1007.8 |
| 20260506012809 | 51 | 216 | 1.7 | 7.0 | 0.00 | 0.34 | 0.00 | 92 | 1007.8 |
| 20260506012708 | 51 | 241 | 2.6 | 7.0 | 0.00 | 0.34 | 0.00 | 92 | 1007.8 |
| 20260506012605 | 51 | 216 | 1.7 | 7.0 | 0.00 | 0.34 | 0.00 | 92 | 1007.8 |
| 20260506012504 | 51 | 239 | 2.6 | 7.0 | 0.00 | 0.34 | 0.00 | 92 | 1007.8 |
| 20260506012403 | 51 | 216 | 3.5 | 5.2 | 0.00 | 0.34 | 0.00 | 92 | 1007.8 |
| 20260506012259 | 52 | 206 | 2.6 | 5.2 | 0.00 | 0.34 | 0.00 | 92 | 1007.8 |
| 20260506012159 | 52 | 211 | 2.6 | 5.2 | 0.00 | 0.34 | 0.00 | 92 | 1007.8 |
| 20260506012056 | 52 | 188 | 1.7 | 4.3 | 0.00 | 0.34 | 0.00 | 92 | 1007.8 |
| 20260506011956 | 52 | 201 | 1.7 | 7.0 | 0.00 | 0.34 | 0.00 | 92 | 1007.8 |
| 20260506011855 | 52 | 175 | 0.9 | 7.0 | 0.00 | 0.34 | 0.00 | 92 | 1007.8 |
| 20260506011753 | 52 | 206 | 0.9 | 7.0 | 0.00 | 0.34 | 0.00 | 92 | 1007.8 |
| 20260506011705 | 52 | 198 | 0.9 | 7.0 | 0.00 | 0.34 | 0.00 | 92 | 1007.8 |
| 20260506011633 | 52 | 198 | 1.7 | 7.0 | 0.00 | 0.34 | 0.00 | 92 | 1007.9 |
| 20260506011451 | 52 | 216 | 1.7 | 7.0 | 0.00 | 0.34 | 0.00 | 92 | 1007.8 |
| 20260506011351 | 52 | 235 | 1.7 | 7.0 | 0.00 | 0.34 | 0.00 | 92 | 1007.9 |
| 20260506011249 | 52 | 216 | 2.6 | 7.0 | 0.00 | 0.34 | 0.00 | 92 | 1007.9 |
| 20260506011147 | 52 | 216 | 4.3 | 7.0 | 0.00 | 0.34 | 0.00 | 92 | 1007.9 |
| 20260506011045 | 52 | 225 | 3.5 | 7.0 | 0.00 | 0.34 | 0.00 | 91 | 1007.9 |
| 20260506010945 | 52 | 241 | 2.6 | 7.0 | 0.00 | 0.34 | 0.00 | 91 | 1008.0 |
| 20260506010843 | 52 | 216 | 2.6 | 7.0 | 0.00 | 0.34 | 0.00 | 91 | 1008.0 |
| 20260506010742 | 52 | 216 | 2.6 | 7.0 | 0.00 | 0.34 | 0.00 | 91 | 1007.9 |
| 20260506010701 | 52 | 188 | 2.6 | 5.2 | 0.00 | 0.34 | 0.00 | 91 | 1008.0 |
| 20260506010631 | 52 | 199 | 1.7 | 5.2 | 0.00 | 0.34 | 0.00 | 91 | 1008.0 |
| 20260506010439 | 52 | 211 | 0.9 | 3.5 | 0.00 | 0.34 | 0.00 | 91 | 1008.0 |
| 20260506010338 | 52 | 206 | 1.7 | 3.5 | 0.00 | 0.34 | 0.00 | 91 | 1008.0 |
| 20260506010237 | 52 | 206 | 1.7 | 3.5 | 0.00 | 0.34 | 0.00 | 91 | 1008.0 |
| 20260506010136 | 52 | 239 | 1.7 | 3.5 | 0.00 | 0.34 | 0.00 | 91 | 1008.0 |
| 20260506010027 | 52 | 211 | 0.0 | 3.5 | 0.00 | 0.34 | 0.00 | 91 | 1008.0 |
| 20260506005927 | 52 | 202 | 1.7 | 6.1 | 0.00 | 0.34 | 0.00 | 92 | 1008.0 |
| 20260506005826 | 52 | 202 | 1.7 | 6.1 | 0.00 | 0.34 | 0.00 | 92 | 1007.9 |
| 20260506005723 | 52 | 211 | 0.9 | 6.1 | 0.00 | 0.34 | 0.00 | 92 | 1008.0 |
| 20260506005622 | 52 | 221 | 0.9 | 6.1 | 0.00 | 0.34 | 0.00 | 92 | 1008.0 |
| 20260506005415 | 52 | 184 | 1.7 | 6.1 | 0.00 | 0.34 | 0.00 | 91 | 1008.0 |
| 20260506005314 | 52 | 216 | 1.7 | 6.1 | 0.00 | 0.34 | 0.00 | 91 | 1008.0 |
| 20260506005212 | 52 | 201 | 1.7 | 6.1 | 0.00 | 0.34 | 0.00 | 92 | 1008.0 |
| 20260506005111 | 51 | 178 | 2.6 | 6.1 | 0.00 | 0.34 | 0.00 | 91 | 1007.9 |
| 20260506004911 | 51 | 203 | 0.9 | 3.5 | 0.00 | 0.34 | 0.00 | 92 | 1008.0 |
| 20260506004809 | 52 | 211 | 0.0 | 3.5 | 0.00 | 0.34 | 0.00 | 92 | 1008.0 |
| 20260506004707 | 51 | 241 | 0.0 | 3.5 | 0.00 | 0.34 | 0.00 | 91 | 1008.0 |
| 20260506004636 | 51 | 241 | 0.0 | 3.5 | 0.00 | 0.34 | 0.00 | 91 | 1008.0 |
| 20260506004457 | 51 | 241 | 1.7 | 3.5 | 0.00 | 0.34 | 0.00 | 91 | 1008.1 |
| 20260506004356 | 51 | 241 | 1.7 | 3.5 | 0.00 | 0.34 | 0.00 | 91 | 1008.0 |
| 20260506004255 | 51 | 231 | 1.7 | 3.5 | 0.00 | 0.34 | 0.00 | 91 | 1008.0 |
| 20260506004154 | 51 | 220 | 1.7 | 3.5 | 0.00 | 0.34 | 0.00 | 91 | 1008.1 |
| 20260506004053 | 51 | 241 | 1.7 | 3.5 | 0.00 | 0.34 | 0.00 | 91 | 1008.1 |
| 20260506003951 | 51 | 216 | 1.7 | 3.5 | 0.00 | 0.34 | 0.00 | 91 | 1008.0 |
| 20260506003851 | 51 | 230 | 1.7 | 3.5 | 0.00 | 0.34 | 0.00 | 91 | 1008.0 |
| 20260506003749 | 51 | 248 | 1.7 | 3.5 | 0.00 | 0.34 | 0.00 | 91 | 1008.0 |
| 20260506003650 | 51 | 257 | 1.7 | 3.5 | 0.00 | 0.34 | 0.00 | 91 | 1008.0 |
| 20260506003549 | 51 | 216 | 1.7 | 3.5 | 0.00 | 0.34 | 0.00 | 91 | 1008.0 |
| 20260506003446 | 51 | 216 | 1.7 | 3.5 | 0.00 | 0.34 | 0.00 | 91 | 1008.0 |
| 20260506003343 | 51 | 216 | 2.6 | 3.5 | 0.00 | 0.34 | 0.00 | 91 | 1008.1 |
| 20260506003244 | 51 | 216 | 1.7 | 7.0 | 0.00 | 0.34 | 0.00 | 91 | 1008.1 |
| 20260506003142 | 51 | 221 | 0.9 | 7.0 | 0.00 | 0.34 | 0.00 | 91 | 1008.0 |
| 20260506003041 | 51 | 247 | 1.7 | 7.0 | 0.00 | 0.34 | 0.00 | 91 | 1008.2 |
| 20260506002939 | 51 | 211 | 1.7 | 7.0 | 0.00 | 0.34 | 0.00 | 91 | 1008.2 |
| 20260506002838 | 52 | 203 | 1.7 | 7.0 | 0.00 | 0.34 | 0.00 | 91 | 1008.1 |
| 20260506002737 | 52 | 233 | 1.7 | 7.0 | 0.00 | 0.34 | 0.00 | 91 | 1008.2 |
| 20260506002635 | 52 | 234 | 2.6 | 7.0 | 0.00 | 0.34 | 0.00 | 91 | 1008.2 |
| 20260506002534 | 52 | 216 | 2.6 | 7.0 | 0.00 | 0.34 | 0.00 | 91 | 1008.2 |
| 20260506002433 | 52 | 222 | 3.5 | 7.0 | 0.00 | 0.34 | 0.00 | 92 | 1008.2 |
| 20260506002332 | 52 | 201 | 4.3 | 7.0 | 0.00 | 0.34 | 0.00 | 92 | 1008.2 |
| 20260506002230 | 52 | 236 | 3.5 | 7.8 | 0.00 | 0.34 | 0.00 | 92 | 1008.2 |
| 20260506002128 | 52 | 216 | 2.6 | 8.7 | 0.00 | 0.34 | 0.00 | 92 | 1008.3 |
| 20260506002029 | 52 | 203 | 2.6 | 8.7 | 0.00 | 0.34 | 0.00 | 92 | 1008.2 |
| 20260506001927 | 52 | 206 | 3.5 | 8.7 | 0.00 | 0.34 | 0.00 | 92 | 1008.3 |
| 20260506001826 | 52 | 224 | 2.6 | 8.7 | 0.00 | 0.34 | 0.00 | 92 | 1008.3 |
| 20260506001725 | 52 | 216 | 2.6 | 8.7 | 0.00 | 0.34 | 0.00 | 92 | 1008.3 |
| 20260506001623 | 52 | 183 | 3.5 | 8.7 | 0.00 | 0.34 | 0.00 | 92 | 1008.3 |
| 20260506001522 | 52 | 216 | 3.5 | 8.7 | 0.00 | 0.34 | 0.00 | 92 | 1008.3 |
| 20260506001421 | 52 | 201 | 4.3 | 8.7 | 0.00 | 0.34 | 0.00 | 92 | 1008.3 |
| 20260506001319 | 52 | 232 | 4.3 | 8.7 | 0.00 | 0.34 | 0.00 | 92 | 1008.3 |
| 20260506001218 | 52 | 245 | 2.6 | 8.7 | 0.00 | 0.34 | 0.00 | 92 | 1008.3 |
| 20260506001145 | 52 | 245 | 1.7 | 7.8 | 0.00 | 0.34 | 0.00 | 92 | 1008.3 |
| 20260506001112 | 52 | 224 | 3.5 | 7.8 | 0.00 | 0.34 | 0.00 | 92 | 1008.3 |
| 20260506000913 | 52 | 247 | 3.5 | 7.8 | 0.00 | 0.34 | 0.00 | 92 | 1008.3 |
| 20260506000814 | 52 | 257 | 2.6 | 7.8 | 0.00 | 0.34 | 0.00 | 92 | 1008.3 |
| 20260506000711 | 52 | 211 | 2.6 | 4.3 | 0.00 | 0.34 | 0.00 | 92 | 1008.3 |
| 20260506000609 | 52 | 200 | 1.7 | 3.5 | 0.00 | 0.34 | 0.00 | 92 | 1008.3 |
| 20260506000509 | 52 | 216 | 1.7 | 3.5 | 0.00 | 0.34 | 0.00 | 92 | 1008.3 |
| 20260506000406 | 52 | 216 | 1.7 | 3.5 | 0.00 | 0.34 | 0.00 | 92 | 1008.3 |
| 20260506000306 | 52 | 188 | 0.9 | 2.6 | 0.00 | 0.34 | 0.00 | 92 | 1008.3 |
| 20260506000205 | 52 | 211 | 0.9 | 2.6 | 0.00 | 0.34 | 0.00 | 92 | 1008.2 |
| 20260506000104 | 52 | 225 | 0.9 | 2.6 | 0.00 | 0.34 | 0.00 | 92 | 1008.2 |
| 20260506000006 | 52 | 225 | 0.9 | 2.6 | 0.00 | 0.34 | 0.00 | 92 | 1008.3 |
| 20260505235859 | 52 | 225 | 0.9 | 3.5 | 0.00 | 0.34 | 0.00 | 92 | 1008.3 |
| 20260505235758 | 52 | 225 | 0.9 | 3.5 | 0.00 | 0.34 | 0.00 | 92 | 1008.3 |
| 20260505235657 | 52 | 225 | 1.7 | 3.5 | 0.00 | 0.34 | 0.00 | 92 | 1008.3 |
| 20260505235555 | 52 | 231 | 0.9 | 3.5 | 0.00 | 0.34 | 0.00 | 92 | 1008.4 |
| 20260505235350 | 52 | 229 | 1.7 | 4.3 | 0.00 | 0.34 | 0.00 | 92 | 1008.4 |
| 20260505235245 | 52 | 229 | 0.9 | 4.3 | 0.00 | 0.34 | 0.00 | 92 | 1008.3 |
| 20260505235146 | 52 | 228 | 0.9 | 5.2 | 0.00 | 0.34 | 0.00 | 92 | 1008.3 |
| 20260505235045 | 52 | 222 | 1.7 | 5.2 | 0.00 | 0.34 | 0.00 | 92 | 1008.3 |
| 20260505234939 | 52 | 221 | 0.9 | 5.2 | 0.00 | 0.34 | 0.00 | 92 | 1008.4 |
| 20260505234837 | 52 | 222 | 1.7 | 5.2 | 0.00 | 0.34 | 0.00 | 92 | 1008.4 |
| 20260505234736 | 52 | 241 | 2.6 | 5.2 | 0.00 | 0.34 | 0.00 | 92 | 1008.3 |
| 20260505234635 | 52 | 242 | 3.5 | 5.2 | 0.00 | 0.34 | 0.00 | 92 | 1008.4 |
| 20260505234534 | 52 | 241 | 3.5 | 5.2 | 0.00 | 0.34 | 0.00 | 92 | 1008.4 |
| 20260505234433 | 52 | 238 | 3.5 | 5.2 | 0.00 | 0.34 | 0.00 | 92 | 1008.4 |
| 20260505234331 | 52 | 239 | 2.6 | 5.2 | 0.00 | 0.34 | 0.00 | 92 | 1008.4 |
| 20260505234230 | 52 | 262 | 1.7 | 5.2 | 0.00 | 0.34 | 0.00 | 92 | 1008.5 |
| 20260505234129 | 52 | 241 | 1.7 | 4.3 | 0.00 | 0.34 | 0.00 | 92 | 1008.5 |
| 20260505234027 | 52 | 222 | 2.6 | 4.3 | 0.00 | 0.34 | 0.00 | 92 | 1008.5 |
| 20260505233925 | 52 | 237 | 1.7 | 4.3 | 0.00 | 0.34 | 0.00 | 92 | 1008.6 |
| 20260505233825 | 52 | 249 | 2.6 | 4.3 | 0.00 | 0.34 | 0.00 | 92 | 1008.5 |
| 20260505233724 | 52 | 221 | 1.7 | 3.5 | 0.00 | 0.34 | 0.00 | 92 | 1008.5 |
| 20260505233622 | 52 | 239 | 1.7 | 3.5 | 0.00 | 0.34 | 0.00 | 92 | 1008.5 |
| 20260505233521 | 52 | 234 | 1.7 | 3.5 | 0.00 | 0.34 | 0.00 | 92 | 1008.5 |
| 20260505233415 | 52 | 239 | 2.6 | 3.5 | 0.00 | 0.34 | 0.00 | 92 | 1008.5 |
| 20260505233314 | 52 | 243 | 2.6 | 4.3 | 0.00 | 0.34 | 0.00 | 92 | 1008.5 |
| 20260505233212 | 52 | 253 | 1.7 | 4.3 | 0.00 | 0.34 | 0.00 | 92 | 1008.4 |
| 20260505233139 | 52 | 237 | 0.9 | 4.3 | 0.00 | 0.34 | 0.00 | 92 | 1008.5 |
| 20260505233106 | 52 | 264 | 1.7 | 4.3 | 0.00 | 0.34 | 0.00 | 93 | 1008.4 |
| 20260505232909 | 52 | 229 | 1.7 | 4.3 | 0.00 | 0.34 | 0.00 | 93 | 1008.5 |
| 20260505232808 | 52 | 229 | 1.7 | 4.3 | 0.00 | 0.34 | 0.00 | 93 | 1008.5 |
| 20260505232705 | 51 | 211 | 1.7 | 4.3 | 0.00 | 0.34 | 0.00 | 93 | 1008.5 |
| 20260505232604 | 52 | 241 | 1.7 | 4.3 | 0.00 | 0.34 | 0.00 | 93 | 1008.4 |
| 20260505232502 | 51 | 247 | 1.7 | 4.3 | 0.00 | 0.34 | 0.00 | 93 | 1008.4 |
| 20260505232401 | 51 | 203 | 0.9 | 4.3 | 0.00 | 0.34 | 0.00 | 93 | 1008.4 |
| 20260505232259 | 51 | 202 | 1.7 | 4.3 | 0.00 | 0.34 | 0.00 | 93 | 1008.4 |
| 20260505232158 | 51 | 237 | 1.7 | 4.3 | 0.00 | 0.34 | 0.00 | 93 | 1008.4 |
| 20260505232058 | 51 | 239 | 1.7 | 4.3 | 0.00 | 0.34 | 0.00 | 93 | 1008.4 |
| 20260505231855 | 51 | 216 | 0.9 | 4.3 | 0.00 | 0.34 | 0.00 | 93 | 1008.5 |
| 20260505231754 | 51 | 216 | 0.9 | 4.3 | 0.00 | 0.34 | 0.00 | 93 | 1008.5 |
| 20260505231653 | 51 | 216 | 0.9 | 4.3 | 0.00 | 0.34 | 0.00 | 93 | 1008.4 |
| 20260505231549 | 51 | 229 | 0.9 | 4.3 | 0.00 | 0.34 | 0.00 | 93 | 1008.4 |
| 20260505231348 | 51 | 233 | 1.7 | 4.3 | 0.00 | 0.34 | 0.00 | 93 | 1008.4 |
| 20260505231247 | 51 | 230 | 1.7 | 4.3 | 0.00 | 0.34 | 0.00 | 93 | 1008.3 |
| 20260505231143 | 51 | 246 | 1.7 | 3.5 | 0.00 | 0.34 | 0.00 | 93 | 1008.3 |
| 20260505231044 | 51 | 249 | 0.9 | 3.5 | 0.00 | 0.34 | 0.00 | 93 | 1008.4 |
| 20260505230841 | 51 | 241 | 0.9 | 3.5 | 0.00 | 0.34 | 0.00 | 93 | 1008.3 |
| 20260505230737 | 51 | 249 | 0.9 | 3.5 | 0.00 | 0.34 | 0.00 | 93 | 1008.3 |
| 20260505230638 | 51 | 257 | 1.7 | 3.5 | 0.00 | 0.34 | 0.00 | 93 | 1008.3 |
| 20260505230536 | 51 | 257 | 1.7 | 3.5 | 0.00 | 0.34 | 0.00 | 93 | 1008.4 |
| 20260505230439 | 51 | 266 | 1.7 | 3.5 | 0.00 | 0.34 | 0.00 | 93 | 1008.3 |
| 20260505230335 | 51 | 278 | 1.7 | 3.5 | 0.00 | 0.34 | 0.00 | 93 | 1008.3 |
| 20260505230244 | 51 | 246 | 1.7 | 3.5 | 0.00 | 0.34 | 0.00 | 93 | 1008.4 |
| 20260505230130 | 51 | 240 | 1.7 | 3.5 | 0.00 | 0.34 | 0.00 | 93 | 1008.4 |
| 20260505230028 | 51 | 240 | 1.7 | 3.5 | 0.00 | 0.34 | 0.00 | 93 | 1008.3 |
| 20260505225932 | 51 | 260 | 0.9 | 2.6 | 0.00 | 0.34 | 0.00 | 93 | 1008.3 |
| 20260505225829 | 51 | 259 | 1.7 | 2.6 | 0.00 | 0.34 | 0.00 | 93 | 1008.4 |
| 20260505225726 | 51 | 248 | 1.7 | 2.6 | 0.00 | 0.34 | 0.00 | 93 | 1008.3 |
| 20260505225627 | 51 | 248 | 1.7 | 2.6 | 0.00 | 0.34 | 0.00 | 93 | 1008.4 |
| 20260505225522 | 51 | 216 | 0.9 | 2.6 | 0.00 | 0.34 | 0.00 | 93 | 1008.4 |
| 20260505225419 | 51 | 216 | 0.0 | 3.5 | 0.00 | 0.34 | 0.00 | 93 | 1008.4 |
| 20260505225317 | 51 | 216 | 0.9 | 3.5 | 0.00 | 0.34 | 0.00 | 93 | 1008.4 |
| 20260505225216 | 51 | 216 | 0.9 | 3.5 | 0.00 | 0.34 | 0.00 | 93 | 1008.4 |
| 20260505225114 | 51 | 216 | 0.9 | 3.5 | 0.00 | 0.34 | 0.00 | 93 | 1008.4 |
| 20260505225010 | 51 | 216 | 0.9 | 3.5 | 0.00 | 0.34 | 0.00 | 93 | 1008.4 |
| 20260505224909 | 51 | 216 | 0.9 | 3.5 | 0.00 | 0.34 | 0.00 | 93 | 1008.4 |
| 20260505224808 | 51 | 216 | 0.0 | 3.5 | 0.00 | 0.34 | 0.00 | 93 | 1008.3 |
| 20260505224708 | 51 | 216 | 1.7 | 3.5 | 0.00 | 0.34 | 0.00 | 93 | 1008.3 |
| 20260505224606 | 51 | 216 | 0.9 | 3.5 | 0.00 | 0.34 | 0.00 | 93 | 1008.3 |
| 20260505224504 | 51 | 216 | 0.0 | 2.6 | 0.00 | 0.34 | 0.00 | 93 | 1008.3 |
| 20260505224405 | 51 | 216 | 0.0 | 1.7 | 0.00 | 0.34 | 0.00 | 93 | 1008.3 |
| 20260505224252 | 51 | 216 | 0.0 | 1.7 | 0.00 | 0.34 | 0.00 | 93 | 1008.3 |
| 20260505224155 | 51 | 216 | 0.0 | 1.7 | 0.00 | 0.34 | 0.00 | 93 | 1008.3 |
| 20260505224053 | 51 | 216 | 0.0 | 1.7 | 0.00 | 0.34 | 0.00 | 93 | 1008.3 |
| 20260505223851 | 51 | 216 | 0.0 | 1.7 | 0.00 | 0.34 | 0.00 | 93 | 1008.3 |
| 20260505223749 | 51 | 216 | 0.9 | 1.7 | 0.00 | 0.34 | 0.00 | 93 | 1008.3 |
| 20260505223651 | 51 | 216 | 0.0 | 1.7 | 0.00 | 0.34 | 0.00 | 93 | 1008.3 |
| 20260505223618 | 51 | 216 | 0.0 | 0.9 | 0.00 | 0.34 | 0.00 | 93 | 1008.4 |
| 20260505223547 | 51 | 216 | 0.0 | 0.9 | 0.00 | 0.34 | 0.00 | 93 | 1008.4 |
| 20260505223345 | 51 | 216 | 0.0 | 0.9 | 0.00 | 0.34 | 0.00 | 93 | 1008.4 |
| 20260505223243 | 51 | 216 | 0.0 | 0.9 | 0.00 | 0.34 | 0.00 | 93 | 1008.4 |
| 20260505223141 | 51 | 216 | 0.0 | 0.9 | 0.00 | 0.34 | 0.00 | 93 | 1008.5 |
| 20260505223035 | 51 | 216 | 0.0 | 0.9 | 0.00 | 0.34 | 0.00 | 93 | 1008.4 |
| 20260505222833 | 51 | 216 | 0.0 | 0.9 | 0.00 | 0.34 | 0.00 | 93 | 1008.4 |
| 20260505222736 | 51 | 216 | 0.0 | 0.9 | 0.00 | 0.34 | 0.00 | 93 | 1008.4 |
| 20260505222634 | 51 | 216 | 0.0 | 0.9 | 0.00 | 0.34 | 0.00 | 93 | 1008.4 |
| 20260505222532 | 51 | 216 | 0.0 | 0.9 | 0.00 | 0.34 | 0.00 | 93 | 1008.4 |
| 20260505222326 | 51 | 216 | 0.0 | 0.9 | 0.00 | 0.34 | 0.00 | 93 | 1008.3 |
| 20260505222225 | 51 | 216 | 0.0 | 0.9 | 0.00 | 0.34 | 0.00 | 93 | 1008.4 |
| 20260505222124 | 51 | 216 | 0.0 | 0.9 | 0.00 | 0.34 | 0.00 | 93 | 1008.4 |
| 20260505222023 | 51 | 216 | 0.0 | 0.0 | 0.00 | 0.34 | 0.00 | 93 | 1008.3 |
| 20260505221919 | 51 | 216 | 0.0 | 0.0 | 0.00 | 0.34 | 0.00 | 93 | 1008.3 |
| 20260505221825 | 51 | 216 | 0.0 | 0.0 | 0.00 | 0.34 | 0.00 | 93 | 1008.3 |
| 20260505221719 | 51 | 216 | 0.0 | 0.0 | 0.00 | 0.34 | 0.00 | 93 | 1008.4 |
| 20260505221627 | 51 | 216 | 0.0 | 0.0 | 0.00 | 0.34 | 0.00 | 93 | 1008.4 |
| 20260505221515 | 51 | 216 | 0.0 | 0.0 | 0.00 | 0.34 | 0.00 | 93 | 1008.3 |
| 20260505221414 | 51 | 216 | 0.0 | 0.0 | 0.00 | 0.34 | 0.00 | 93 | 1008.3 |
| 20260505221313 | 51 | 216 | 0.0 | 0.0 | 0.00 | 0.34 | 0.00 | 93 | 1008.3 |
| 20260505221212 | 51 | 216 | 0.0 | 0.0 | 0.00 | 0.34 | 0.00 | 93 | 1008.3 |
| 20260505221110 | 51 | 216 | 0.0 | 0.0 | 0.00 | 0.34 | 0.00 | 93 | 1008.3 |
| 20260505221009 | 51 | 216 | 0.0 | 0.0 | 0.00 | 0.34 | 0.00 | 93 | 1008.2 |
| 20260505220906 | 51 | 216 | 0.0 | 0.0 | 0.00 | 0.34 | 0.00 | 93 | 1008.3 |
| 20260505220809 | 51 | 216 | 0.0 | 0.0 | 0.00 | 0.34 | 0.00 | 93 | 1008.2 |
| 20260505220704 | 51 | 216 | 0.0 | 0.9 | 0.00 | 0.34 | 0.00 | 93 | 1008.3 |
| 20260505220606 | 51 | 216 | 0.0 | 0.9 | 0.00 | 0.34 | 0.00 | 93 | 1008.3 |
| 20260505220504 | 51 | 216 | 0.0 | 0.9 | 0.00 | 0.34 | 0.00 | 93 | 1008.3 |
| 20260505220401 | 51 | 216 | 0.0 | 0.9 | 0.00 | 0.34 | 0.00 | 93 | 1008.4 |
| 20260505220300 | 51 | 216 | 0.0 | 0.9 | 0.00 | 0.34 | 0.00 | 93 | 1008.3 |
| 20260505220158 | 51 | 216 | 0.0 | 0.9 | 0.00 | 0.34 | 0.00 | 93 | 1008.4 |
| 20260505220105 | 51 | 216 | 0.0 | 0.9 | 0.00 | 0.34 | 0.00 | 93 | 1008.4 |
| 20260505215951 | 51 | 216 | 0.0 | 0.9 | 0.00 | 0.34 | 0.34 | 93 | 1008.5 |
| 20260505215849 | 51 | 216 | 0.0 | 0.9 | 0.00 | 0.34 | 0.34 | 93 | 1008.5 |
| 20260505215750 | 51 | 216 | 0.0 | 0.9 | 0.00 | 0.34 | 0.34 | 93 | 1008.5 |
| 20260505215647 | 51 | 216 | 0.0 | 0.9 | 0.00 | 0.34 | 0.34 | 93 | 1008.5 |
| 20260505215612 | 51 | 216 | 0.0 | 1.7 | 0.00 | 0.34 | 0.34 | 93 | 1008.5 |
| 20260505215536 | 51 | 216 | 0.0 | 1.7 | 0.00 | 0.34 | 0.34 | 93 | 1008.5 |
| 20260505215343 | 51 | 216 | 0.0 | 1.7 | 0.00 | 0.34 | 0.34 | 93 | 1008.4 |
| 20260505215242 | 51 | 216 | 0.0 | 1.7 | 0.00 | 0.34 | 0.34 | 93 | 1008.4 |
| 20260505215140 | 51 | 216 | 0.0 | 1.7 | 0.00 | 0.34 | 0.34 | 93 | 1008.4 |
| 20260505215100 | 51 | 216 | 0.0 | 1.7 | 0.00 | 0.34 | 0.34 | 93 | 1008.5 |
| 20260505215031 | 51 | 216 | 0.0 | 1.7 | 0.00 | 0.34 | 0.34 | 93 | 1008.4 |
| 20260505214832 | 51 | 216 | 0.0 | 1.7 | 0.00 | 0.34 | 0.34 | 93 | 1008.4 |
| 20260505214732 | 51 | 216 | 0.9 | 1.7 | 0.00 | 0.34 | 0.34 | 93 | 1008.5 |
| 20260505214631 | 51 | 216 | 0.9 | 1.7 | 0.00 | 0.34 | 0.34 | 93 | 1008.5 |
| 20260505214531 | 51 | 216 | 0.0 | 1.7 | 0.00 | 0.34 | 0.34 | 93 | 1008.5 |
| 20260505214322 | 51 | 216 | 0.0 | 1.7 | 0.00 | 0.34 | 0.34 | 93 | 1008.5 |
| 20260505214222 | 51 | 216 | 0.9 | 1.7 | 0.00 | 0.34 | 0.34 | 93 | 1008.4 |
| 20260505214113 | 51 | 216 | 1.7 | 2.6 | 0.00 | 0.34 | 0.34 | 93 | 1008.5 |
| 20260505214012 | 51 | 216 | 0.9 | 2.6 | 0.00 | 0.34 | 0.34 | 93 | 1008.5 |
| 20260505213809 | 51 | 216 | 0.9 | 2.6 | 0.00 | 0.34 | 0.34 | 93 | 1008.5 |
| 20260505213709 | 51 | 216 | 0.9 | 2.6 | 0.00 | 0.34 | 0.34 | 93 | 1008.5 |
| 20260505213607 | 51 | 216 | 0.9 | 2.6 | 0.00 | 0.34 | 0.34 | 93 | 1008.6 |
| 20260505213505 | 51 | 216 | 0.9 | 2.6 | 0.00 | 0.34 | 0.34 | 93 | 1008.5 |
| 20260505213405 | 51 | 216 | 0.9 | 2.6 | 0.00 | 0.34 | 0.34 | 93 | 1008.4 |
| 20260505213307 | 51 | 216 | 0.9 | 2.6 | 0.00 | 0.34 | 0.34 | 93 | 1008.5 |
| 20260505213203 | 51 | 216 | 0.0 | 2.6 | 0.00 | 0.34 | 0.34 | 93 | 1008.5 |
| 20260505213102 | 51 | 216 | 0.0 | 2.6 | 0.00 | 0.34 | 0.34 | 93 | 1008.6 |
| 20260505213000 | 51 | 216 | 0.9 | 2.6 | 0.00 | 0.34 | 0.34 | 93 | 1008.5 |
| 20260505212905 | 51 | 216 | 0.9 | 2.6 | 0.00 | 0.34 | 0.34 | 93 | 1008.6 |
| 20260505212756 | 51 | 216 | 0.9 | 2.6 | 0.00 | 0.34 | 0.34 | 93 | 1008.6 |
| 20260505212655 | 51 | 224 | 1.7 | 2.6 | 0.00 | 0.34 | 0.34 | 93 | 1008.6 |
| 20260505212554 | 51 | 211 | 0.9 | 2.6 | 0.00 | 0.34 | 0.34 | 93 | 1008.7 |
| 20260505212454 | 51 | 221 | 1.7 | 2.6 | 0.00 | 0.34 | 0.34 | 93 | 1008.6 |
| 20260505212353 | 51 | 231 | 0.9 | 2.6 | 0.00 | 0.34 | 0.34 | 93 | 1008.7 |
| 20260505212250 | 51 | 320 | 0.0 | 1.7 | 0.00 | 0.34 | 0.34 | 93 | 1008.7 |
| 20260505212150 | 51 | 320 | 0.0 | 1.7 | 0.00 | 0.34 | 0.34 | 93 | 1008.6 |
| 20260505212049 | 51 | 320 | 0.0 | 1.7 | 0.00 | 0.34 | 0.34 | 93 | 1008.6 |
| 20260505211942 | 51 | 320 | 0.0 | 1.7 | 0.00 | 0.34 | 0.34 | 93 | 1008.5 |
| 20260505211842 | 51 | 320 | 0.0 | 1.7 | 0.00 | 0.34 | 0.34 | 93 | 1008.5 |
| 20260505211738 | 51 | 320 | 0.0 | 1.7 | 0.00 | 0.34 | 0.34 | 93 | 1008.5 |
| 20260505211635 | 51 | 320 | 0.0 | 1.7 | 0.00 | 0.34 | 0.34 | 93 | 1008.5 |
| 20260505211534 | 51 | 320 | 0.0 | 1.7 | 0.00 | 0.34 | 0.34 | 93 | 1008.6 |
| 20260505211432 | 51 | 320 | 0.0 | 1.7 | 0.00 | 0.34 | 0.34 | 93 | 1008.6 |
| 20260505211326 | 51 | 320 | 0.0 | 1.7 | 0.00 | 0.34 | 0.34 | 93 | 1008.7 |
| 20260505211225 | 51 | 320 | 0.0 | 0.0 | 0.00 | 0.34 | 0.34 | 93 | 1008.8 |
| 20260505211123 | 51 | 320 | 0.0 | 0.0 | 0.00 | 0.34 | 0.34 | 93 | 1008.8 |
| 20260505211050 | 51 | 320 | 0.0 | 0.0 | 0.00 | 0.34 | 0.34 | 93 | 1008.7 |
| 20260505211018 | 51 | 320 | 0.0 | 0.0 | 0.00 | 0.34 | 0.34 | 93 | 1008.8 |
| 20260505210820 | 51 | 320 | 0.0 | 0.0 | 0.00 | 0.34 | 0.34 | 93 | 1008.8 |
| 20260505210719 | 51 | 320 | 0.0 | 0.9 | 0.00 | 0.34 | 0.34 | 93 | 1008.8 |
| 20260505210612 | 51 | 320 | 0.0 | 0.9 | 0.00 | 0.34 | 0.34 | 93 | 1008.8 |
| 20260505210512 | 51 | 320 | 0.0 | 0.9 | 0.00 | 0.34 | 0.34 | 93 | 1008.7 |
| 20260505210409 | 51 | 320 | 0.0 | 0.9 | 0.00 | 0.34 | 0.34 | 93 | 1008.7 |
| 20260505210311 | 51 | 320 | 0.0 | 0.9 | 0.00 | 0.34 | 0.34 | 92 | 1008.7 |
| 20260505210210 | 51 | 320 | 0.0 | 0.9 | 0.00 | 0.34 | 0.34 | 92 | 1008.7 |
| 20260505210110 | 51 | 320 | 0.0 | 0.9 | 0.00 | 0.34 | 0.34 | 92 | 1008.7 |
| 20260505210007 | 51 | 320 | 0.0 | 0.9 | 0.00 | 0.34 | 0.34 | 92 | 1008.7 |
| 20260505205757 | 51 | 320 | 0.0 | 0.9 | 0.00 | 0.34 | 0.34 | 92 | 1008.6 |
| 20260505205654 | 51 | 320 | 0.0 | 0.9 | 0.00 | 0.34 | 0.34 | 92 | 1008.6 |
| 20260505205553 | 51 | 320 | 0.0 | 1.7 | 0.00 | 0.34 | 0.34 | 92 | 1008.6 |
| 20260505205451 | 51 | 320 | 0.0 | 1.7 | 0.00 | 0.34 | 0.34 | 92 | 1008.6 |
| 20260505205351 | 51 | 320 | 0.0 | 1.7 | 0.00 | 0.34 | 0.34 | 92 | 1008.6 |
| 20260505205252 | 51 | 320 | 0.0 | 1.7 | 0.00 | 0.34 | 0.34 | 92 | 1008.6 |
| 20260505205147 | 51 | 320 | 0.0 | 1.7 | 0.00 | 0.34 | 0.34 | 93 | 1008.6 |
| 20260505205046 | 51 | 320 | 0.0 | 1.7 | 0.00 | 0.34 | 0.34 | 93 | 1008.7 |
| 20260505204946 | 51 | 320 | 0.0 | 1.7 | 0.00 | 0.34 | 0.34 | 92 | 1008.6 |
| 20260505204843 | 51 | 320 | 0.0 | 1.7 | 0.00 | 0.34 | 0.34 | 92 | 1008.6 |
| 20260505204743 | 51 | 320 | 0.9 | 1.7 | 0.00 | 0.34 | 0.34 | 92 | 1008.6 |
| 20260505204642 | 51 | 320 | 0.9 | 1.7 | 0.00 | 0.34 | 0.34 | 92 | 1008.6 |
| 20260505204539 | 51 | 320 | 0.0 | 1.7 | 0.00 | 0.34 | 0.34 | 92 | 1008.6 |
| 20260505204439 | 51 | 320 | 0.0 | 1.7 | 0.00 | 0.34 | 0.34 | 92 | 1008.6 |
| 20260505204339 | 51 | 320 | 0.0 | 1.7 | 0.00 | 0.34 | 0.34 | 92 | 1008.5 |
| 20260505204232 | 51 | 320 | 0.0 | 1.7 | 0.00 | 0.34 | 0.34 | 92 | 1008.5 |
| 20260505204129 | 51 | 320 | 0.0 | 0.9 | 0.00 | 0.34 | 0.34 | 92 | 1008.5 |
| 20260505204029 | 51 | 320 | 0.0 | 0.9 | 0.00 | 0.34 | 0.34 | 92 | 1008.5 |
| 20260505203927 | 51 | 320 | 0.0 | 0.9 | 0.00 | 0.34 | 0.34 | 92 | 1008.5 |
| 20260505203824 | 51 | 320 | 0.0 | 0.9 | 0.00 | 0.34 | 0.34 | 92 | 1008.5 |
| 20260505203725 | 51 | 320 | 0.0 | 0.9 | 0.00 | 0.34 | 0.34 | 92 | 1008.6 |
| 20260505203624 | 51 | 320 | 0.0 | 0.9 | 0.00 | 0.34 | 0.34 | 92 | 1008.6 |
| 20260505203522 | 51 | 320 | 0.0 | 0.9 | 0.00 | 0.34 | 0.34 | 92 | 1008.5 |
| 20260505203421 | 51 | 320 | 0.0 | 0.9 | 0.00 | 0.34 | 0.34 | 92 | 1008.6 |
| 20260505203319 | 51 | 320 | 0.0 | 0.9 | 0.00 | 0.34 | 0.34 | 92 | 1008.6 |
| 20260505203218 | 51 | 320 | 0.0 | 0.9 | 0.00 | 0.34 | 0.34 | 92 | 1008.5 |
| 20260505203113 | 51 | 320 | 0.0 | 0.9 | 0.00 | 0.34 | 0.34 | 92 | 1008.6 |
| 20260505203012 | 51 | 320 | 0.0 | 0.9 | 0.00 | 0.34 | 0.34 | 92 | 1008.5 |
| 20260505202910 | 51 | 320 | 0.0 | 0.9 | 0.00 | 0.34 | 0.34 | 92 | 1008.5 |
| 20260505202810 | 51 | 320 | 0.0 | 0.9 | 0.00 | 0.34 | 0.34 | 92 | 1008.6 |
| 20260505202709 | 51 | 320 | 0.0 | 0.9 | 0.00 | 0.34 | 0.34 | 92 | 1008.5 |
| 20260505202608 | 52 | 320 | 0.0 | 0.9 | 0.00 | 0.34 | 0.34 | 92 | 1008.5 |
| 20260505202506 | 52 | 320 | 0.0 | 0.9 | 0.00 | 0.34 | 0.34 | 92 | 1008.6 |
| 20260505202404 | 52 | 320 | 0.0 | 0.9 | 0.00 | 0.34 | 0.34 | 91 | 1008.6 |
| 20260505202306 | 52 | 320 | 0.0 | 0.9 | 0.00 | 0.34 | 0.34 | 91 | 1008.5 |
| 20260505202208 | 52 | 320 | 0.0 | 0.9 | 0.00 | 0.34 | 0.34 | 91 | 1008.5 |
| 20260505202105 | 52 | 320 | 0.0 | 0.9 | 0.00 | 0.34 | 0.34 | 91 | 1008.5 |
| 20260505202004 | 52 | 320 | 0.0 | 0.9 | 0.00 | 0.34 | 0.34 | 92 | 1008.5 |
| 20260505201756 | 52 | 320 | 0.0 | 0.0 | 0.00 | 0.34 | 0.34 | 92 | 1008.6 |
| 20260505201657 | 52 | 320 | 0.0 | 0.0 | 0.00 | 0.34 | 0.34 | 92 | 1008.5 |
| 20260505201554 | 52 | 320 | 0.0 | 0.0 | 0.00 | 0.34 | 0.34 | 91 | 1008.5 |
| 20260505201454 | 52 | 320 | 0.0 | 0.0 | 0.00 | 0.34 | 0.34 | 92 | 1008.5 |
| 20260505201250 | 52 | 320 | 0.0 | 0.0 | 0.00 | 0.34 | 0.34 | 91 | 1008.5 |
| 20260505201151 | 52 | 320 | 0.0 | 0.0 | 0.00 | 0.34 | 0.34 | 91 | 1008.5 |
| 20260505201050 | 52 | 320 | 0.0 | 0.0 | 0.00 | 0.34 | 0.34 | 92 | 1008.5 |
| 20260505200949 | 52 | 320 | 0.0 | 0.0 | 0.00 | 0.34 | 0.34 | 91 | 1008.6 |
| 20260505200746 | 52 | 320 | 0.0 | 0.0 | 0.00 | 0.34 | 0.34 | 91 | 1008.5 |
| 20260505200641 | 52 | 320 | 0.0 | 0.0 | 0.00 | 0.34 | 0.34 | 91 | 1008.5 |
| 20260505200540 | 52 | 320 | 0.0 | 0.9 | 0.00 | 0.34 | 0.34 | 91 | 1008.4 |
| 20260505200440 | 52 | 320 | 0.0 | 0.9 | 0.00 | 0.34 | 0.34 | 91 | 1008.4 |
| 20260505200237 | 52 | 320 | 0.0 | 0.9 | 0.00 | 0.34 | 0.34 | 91 | 1008.3 |
| 20260505200137 | 52 | 320 | 0.0 | 0.9 | 0.00 | 0.34 | 0.34 | 91 | 1008.3 |
| 20260505200029 | 52 | 320 | 0.0 | 0.9 | 0.00 | 0.34 | 0.34 | 91 | 1008.3 |
| 20260505200000 | 52 | 320 | 0.0 | 0.9 | 0.00 | 0.34 | 0.34 | 91 | 1008.3 |
| 20260505195827 | 52 | 320 | 0.0 | 0.9 | 0.00 | 0.34 | 0.34 | 91 | 1008.2 |
| 20260505195725 | 52 | 320 | 0.0 | 0.9 | 0.00 | 0.34 | 0.34 | 91 | 1008.2 |
| 20260505195623 | 52 | 320 | 0.0 | 0.9 | 0.00 | 0.34 | 0.34 | 91 | 1008.2 |
| 20260505195522 | 52 | 320 | 0.0 | 0.9 | 0.00 | 0.34 | 0.34 | 91 | 1008.2 |
| 20260505195422 | 52 | 320 | 0.0 | 0.9 | 0.00 | 0.34 | 0.34 | 91 | 1008.1 |
| 20260505195319 | 52 | 320 | 0.0 | 0.9 | 0.00 | 0.34 | 0.34 | 91 | 1008.2 |
| 20260505195220 | 52 | 320 | 0.0 | 0.9 | 0.00 | 0.34 | 0.34 | 91 | 1008.1 |
| 20260505195118 | 52 | 320 | 0.0 | 0.9 | 0.00 | 0.34 | 0.34 | 91 | 1008.1 |
| 20260505195011 | 52 | 320 | 0.0 | 0.9 | 0.00 | 0.34 | 0.34 | 90 | 1008.1 |
| 20260505194911 | 52 | 320 | 0.0 | 0.9 | 0.00 | 0.34 | 0.34 | 90 | 1008.1 |
| 20260505194803 | 52 | 320 | 0.0 | 1.7 | 0.00 | 0.34 | 0.34 | 90 | 1008.1 |
| 20260505194659 | 52 | 320 | 0.0 | 1.7 | 0.00 | 0.34 | 0.34 | 90 | 1008.1 |
| 20260505194601 | 52 | 320 | 0.0 | 1.7 | 0.00 | 0.34 | 0.34 | 90 | 1008.0 |
| 20260505194500 | 52 | 320 | 0.0 | 1.7 | 0.00 | 0.34 | 0.34 | 90 | 1008.1 |
| 20260505194355 | 52 | 320 | 0.0 | 1.7 | 0.00 | 0.34 | 0.34 | 90 | 1008.0 |
| 20260505194257 | 52 | 320 | 0.0 | 1.7 | 0.00 | 0.34 | 0.34 | 90 | 1008.0 |
| 20260505194155 | 52 | 320 | 0.0 | 2.6 | 0.00 | 0.34 | 0.34 | 90 | 1008.0 |
| 20260505194053 | 52 | 314 | 0.0 | 2.6 | 0.00 | 0.34 | 0.34 | 90 | 1008.0 |
| 20260505193954 | 52 | 314 | 0.0 | 2.6 | 0.00 | 0.34 | 0.34 | 90 | 1008.0 |
| 20260505193747 | 52 | 274 | 0.0 | 2.6 | 0.00 | 0.34 | 0.34 | 90 | 1008.0 |
| 20260505193647 | 52 | 274 | 0.0 | 3.5 | 0.00 | 0.34 | 0.34 | 90 | 1008.0 |
| 20260505193544 | 52 | 274 | 0.0 | 3.5 | 0.00 | 0.34 | 0.34 | 90 | 1007.9 |
| 20260505193446 | 52 | 274 | 0.0 | 3.5 | 0.00 | 0.34 | 0.34 | 90 | 1007.9 |
| 20260505193241 | 52 | 274 | 0.9 | 3.5 | 0.00 | 0.34 | 0.34 | 90 | 1007.9 |
| 20260505193140 | 53 | 306 | 0.9 | 3.5 | 0.00 | 0.34 | 0.34 | 90 | 1007.9 |
| 20260505193039 | 53 | 306 | 0.9 | 3.5 | 0.00 | 0.34 | 0.34 | 90 | 1007.9 |
| 20260505192938 | 53 | 307 | 0.9 | 5.2 | 0.00 | 0.34 | 0.34 | 90 | 1007.9 |
| 20260505192740 | 53 | 307 | 1.7 | 7.8 | 0.01 | 0.34 | 0.34 | 90 | 1007.8 |
| 20260505192638 | 52 | 285 | 0.9 | 7.8 | 0.01 | 0.34 | 0.34 | 90 | 1007.8 |
| 20260505192537 | 53 | 280 | 0.9 | 7.8 | 0.01 | 0.34 | 0.34 | 90 | 1007.8 |
| 20260505192431 | 52 | 329 | 0.0 | 7.8 | 0.01 | 0.34 | 0.34 | 90 | 1007.7 |
| 20260505192229 | 52 | 330 | 1.7 | 7.8 | 0.01 | 0.34 | 0.34 | 90 | 1007.9 |
| 20260505192124 | 52 | 330 | 3.5 | 7.8 | 0.01 | 0.34 | 0.34 | 90 | 1007.8 |
| 20260505192023 | 52 | 311 | 2.6 | 7.8 | 0.01 | 0.34 | 0.34 | 90 | 1007.8 |
| 20260505191921 | 52 | 306 | 1.7 | 7.8 | 0.01 | 0.34 | 0.34 | 90 | 1007.8 |
| 20260505191820 | 53 | 299 | 1.7 | 7.8 | 0.01 | 0.34 | 0.34 | 90 | 1007.8 |
| 20260505191722 | 53 | 301 | 1.7 | 7.8 | 0.02 | 0.34 | 0.34 | 90 | 1007.8 |
| 20260505191619 | 53 | 323 | 3.5 | 8.7 | 0.02 | 0.34 | 0.34 | 90 | 1007.8 |
| 20260505191514 | 53 | 322 | 3.5 | 8.7 | 0.02 | 0.34 | 0.34 | 90 | 1007.7 |
| 20260505191415 | 53 | 325 | 2.6 | 8.7 | 0.02 | 0.34 | 0.34 | 90 | 1007.8 |
| 20260505191313 | 53 | 289 | 2.6 | 8.7 | 0.02 | 0.34 | 0.34 | 90 | 1007.8 |
| 20260505191214 | 53 | 312 | 3.5 | 8.7 | 0.02 | 0.34 | 0.34 | 90 | 1007.8 |
| 20260505191113 | 53 | 279 | 3.5 | 8.7 | 0.02 | 0.34 | 0.34 | 90 | 1007.8 |
| 20260505191012 | 53 | 303 | 2.6 | 8.7 | 0.03 | 0.34 | 0.34 | 90 | 1007.9 |
| 20260505190910 | 53 | 323 | 1.7 | 8.7 | 0.03 | 0.34 | 0.34 | 90 | 1007.8 |
| 20260505190810 | 53 | 327 | 4.3 | 8.7 | 0.03 | 0.34 | 0.34 | 90 | 1007.8 |
| 20260505190708 | 53 | 330 | 4.3 | 8.7 | 0.04 | 0.34 | 0.34 | 90 | 1007.9 |
| 20260505190606 | 53 | 330 | 3.5 | 8.7 | 0.04 | 0.34 | 0.34 | 90 | 1007.8 |
| 20260505190505 | 53 | 306 | 3.5 | 8.7 | 0.04 | 0.34 | 0.34 | 90 | 1007.8 |
| 20260505190403 | 53 | 314 | 4.3 | 8.7 | 0.04 | 0.34 | 0.34 | 90 | 1007.8 |
| 20260505190303 | 53 | 329 | 5.2 | 8.7 | 0.05 | 0.34 | 0.34 | 90 | 1007.8 |
| 20260505190201 | 53 | 320 | 5.2 | 8.7 | 0.06 | 0.34 | 0.34 | 90 | 1007.8 |
| 20260505185958 | 53 | 312 | 5.2 | 8.7 | 0.06 | 0.34 | 0.34 | 90 | 1007.8 |
| 20260505185852 | 53 | 325 | 5.2 | 8.7 | 0.07 | 0.34 | 0.34 | 89 | 1007.8 |
| 20260505185751 | 53 | 326 | 3.5 | 8.7 | 0.08 | 0.34 | 0.34 | 89 | 1007.8 |
| 20260505185651 | 53 | 319 | 2.6 | 8.7 | 0.09 | 0.34 | 0.34 | 89 | 1007.9 |
| 20260505185551 | 53 | 272 | 3.5 | 8.7 | 0.09 | 0.34 | 0.34 | 89 | 1007.8 |
| 20260505185452 | 53 | 335 | 4.3 | 8.7 | 0.10 | 0.34 | 0.34 | 89 | 1007.8 |
| 20260505185351 | 53 | 285 | 3.5 | 7.8 | 0.10 | 0.34 | 0.34 | 89 | 1007.8 |
| 20260505185249 | 53 | 309 | 2.6 | 7.8 | 0.10 | 0.34 | 0.34 | 89 | 1007.9 |
| 20260505185149 | 53 | 313 | 1.7 | 7.8 | 0.11 | 0.34 | 0.34 | 89 | 1007.9 |
| 20260505185048 | 53 | 289 | 1.7 | 7.8 | 0.13 | 0.34 | 0.34 | 89 | 1007.9 |
| 20260505184947 | 53 | 322 | 3.5 | 7.8 | 0.13 | 0.34 | 0.34 | 89 | 1008.0 |
| 20260505184845 | 53 | 322 | 4.3 | 7.8 | 0.15 | 0.34 | 0.34 | 89 | 1008.0 |
| 20260505184743 | 53 | 316 | 4.3 | 7.8 | 0.17 | 0.34 | 0.34 | 89 | 1008.0 |
| 20260505184642 | 53 | 314 | 4.3 | 7.8 | 0.18 | 0.34 | 0.34 | 89 | 1008.1 |
| 20260505184541 | 53 | 307 | 5.2 | 7.8 | 0.19 | 0.34 | 0.34 | 89 | 1008.1 |
| 20260505184439 | 53 | 295 | 4.3 | 7.0 | 0.21 | 0.34 | 0.34 | 89 | 1008.2 |
| 20260505184338 | 53 | 293 | 2.6 | 7.0 | 0.24 | 0.34 | 0.34 | 89 | 1008.2 |
| 20260505184236 | 53 | 274 | 3.5 | 7.0 | 0.24 | 0.34 | 0.34 | 89 | 1008.3 |
| 20260505184135 | 53 | 287 | 3.5 | 7.0 | 0.26 | 0.34 | 0.34 | 89 | 1008.3 |
| 20260505184035 | 53 | 305 | 2.6 | 7.0 | 0.28 | 0.34 | 0.34 | 89 | 1008.3 |
| 20260505184002 | 53 | 326 | 1.7 | 5.2 | 0.31 | 0.34 | 0.34 | 89 | 1008.3 |
| 20260505183928 | 53 | 329 | 0.9 | 3.5 | 0.31 | 0.34 | 0.34 | 90 | 1008.3 |
| 20260505183730 | 53 | 334 | 0.9 | 2.6 | 0.32 | 0.34 | 0.34 | 89 | 1008.3 |
| 20260505183628 | 53 | 334 | 0.0 | 2.6 | 0.32 | 0.34 | 0.34 | 89 | 1008.3 |
| 20260505183526 | 53 | 334 | 0.0 | 2.6 | 0.34 | 0.34 | 0.34 | 89 | 1008.3 |
| 20260505183424 | 53 | 334 | 0.0 | 2.6 | 0.34 | 0.34 | 0.34 | 89 | 1008.4 |
| 20260505183221 | 53 | 334 | 0.0 | 2.6 | 0.34 | 0.34 | 0.34 | 89 | 1008.4 |
| 20260505183121 | 53 | 334 | 0.0 | 2.6 | 0.34 | 0.34 | 0.34 | 89 | 1008.5 |
| 20260505183020 | 53 | 334 | 0.0 | 2.6 | 0.34 | 0.34 | 0.34 | 89 | 1008.5 |
| 20260505182918 | 53 | 334 | 0.9 | 2.6 | 0.33 | 0.33 | 0.34 | 89 | 1008.6 |
| 20260505182718 | 53 | 31 | 0.0 | 1.7 | 0.33 | 0.33 | 0.33 | 89 | 1008.6 |
| 20260505182616 | 53 | 31 | 0.0 | 2.6 | 0.33 | 0.33 | 0.33 | 89 | 1008.6 |
| 20260505182518 | 53 | 31 | 0.0 | 3.5 | 0.33 | 0.33 | 0.33 | 89 | 1008.6 |
| 20260505182449 | 53 | 31 | 0.0 | 3.5 | 0.33 | 0.33 | 0.33 | 89 | 1008.6 |
| 20260505182416 | 53 | 34 | 0.0 | 3.5 | 0.33 | 0.33 | 0.33 | 89 | 1008.6 |
| 20260505182209 | 53 | 34 | 0.0 | 3.5 | 0.33 | 0.33 | 0.33 | 88 | 1008.5 |
| 20260505182105 | 53 | 34 | 0.0 | 3.5 | 0.33 | 0.33 | 0.33 | 88 | 1008.4 |
| 20260505182008 | 53 | 34 | 0.0 | 5.2 | 0.33 | 0.33 | 0.33 | 88 | 1008.5 |
| 20260505181906 | 53 | 34 | 0.0 | 8.7 | 0.33 | 0.33 | 0.33 | 88 | 1008.4 |
| 20260505181805 | 53 | 34 | 0.9 | 9.6 | 0.33 | 0.33 | 0.33 | 88 | 1008.4 |
| 20260505181709 | 53 | 33 | 0.9 | 10.4 | 0.32 | 0.32 | 0.32 | 88 | 1008.3 |
| 20260505181603 | 53 | 22 | 0.9 | 10.4 | 0.32 | 0.32 | 0.32 | 88 | 1008.3 |
| 20260505181500 | 53 | 328 | 0.9 | 10.4 | 0.32 | 0.32 | 0.32 | 88 | 1008.3 |
| 20260505181356 | 53 | 288 | 1.7 | 10.4 | 0.31 | 0.31 | 0.32 | 88 | 1008.4 |
| 20260505181257 | 53 | 249 | 2.6 | 10.4 | 0.31 | 0.31 | 0.31 | 88 | 1008.4 |
| 20260505181157 | 53 | 305 | 3.5 | 10.4 | 0.31 | 0.31 | 0.31 | 88 | 1008.4 |
| 20260505181057 | 53 | 276 | 5.2 | 11.3 | 0.31 | 0.31 | 0.31 | 88 | 1008.4 |
| 20260505180955 | 53 | 299 | 6.1 | 11.3 | 0.31 | 0.31 | 0.31 | 87 | 1008.3 |
| 20260505180854 | 54 | 293 | 5.2 | 11.3 | 0.31 | 0.31 | 0.31 | 87 | 1008.3 |
| 20260505180752 | 54 | 258 | 3.5 | 11.3 | 0.31 | 0.31 | 0.31 | 87 | 1008.3 |
| 20260505180656 | 54 | 285 | 4.3 | 11.3 | 0.30 | 0.30 | 0.31 | 87 | 1008.4 |
| 20260505180550 | 54 | 284 | 6.1 | 11.3 | 0.30 | 0.30 | 0.30 | 87 | 1008.4 |
| 20260505180449 | 54 | 265 | 7.0 | 13.0 | 0.30 | 0.30 | 0.30 | 87 | 1008.4 |
| 20260505180347 | 54 | 268 | 7.8 | 16.5 | 0.29 | 0.29 | 0.30 | 87 | 1008.4 |
| 20260505180246 | 54 | 273 | 7.0 | 16.5 | 0.29 | 0.29 | 0.29 | 87 | 1008.4 |
| 20260505180145 | 54 | 265 | 7.0 | 16.5 | 0.28 | 0.28 | 0.29 | 87 | 1008.3 |
| 20260505180043 | 54 | 238 | 7.0 | 16.5 | 0.28 | 0.28 | 0.28 | 86 | 1008.3 |
| 20260505175942 | 54 | 274 | 7.0 | 16.5 | 0.27 | 0.27 | 0.28 | 86 | 1008.4 |
| 20260505175841 | 54 | 239 | 7.0 | 16.5 | 0.27 | 0.27 | 0.27 | 86 | 1008.3 |
| 20260505175739 | 54 | 293 | 7.8 | 16.5 | 0.26 | 0.26 | 0.27 | 86 | 1008.2 |
| 20260505175639 | 54 | 274 | 9.6 | 16.5 | 0.25 | 0.25 | 0.26 | 86 | 1008.3 |
| 20260505175536 | 54 | 278 | 7.8 | 16.5 | 0.24 | 0.24 | 0.25 | 86 | 1008.2 |
| 20260505175431 | 54 | 295 | 7.0 | 16.5 | 0.24 | 0.24 | 0.24 | 85 | 1008.2 |
| 20260505175330 | 54 | 259 | 7.0 | 16.5 | 0.24 | 0.24 | 0.24 | 85 | 1008.2 |
| 20260505175233 | 54 | 291 | 7.8 | 16.5 | 0.23 | 0.23 | 0.23 | 85 | 1008.2 |
| 20260505175135 | 55 | 295 | 8.7 | 16.5 | 0.21 | 0.21 | 0.22 | 84 | 1008.2 |
| 20260505175030 | 55 | 279 | 7.8 | 16.5 | 0.20 | 0.20 | 0.21 | 84 | 1008.2 |
| 20260505174952 | 55 | 283 | 8.7 | 16.5 | 0.19 | 0.19 | 0.20 | 83 | 1008.2 |
| 20260505174918 | 55 | 290 | 10.4 | 16.5 | 0.17 | 0.17 | 0.18 | 83 | 1008.2 |
| 20260505174726 | 55 | 297 | 10.4 | 16.5 | 0.17 | 0.17 | 0.17 | 83 | 1008.2 |
| 20260505174625 | 56 | 277 | 8.7 | 15.6 | 0.16 | 0.16 | 0.16 | 83 | 1008.2 |
| 20260505174524 | 56 | 280 | 8.7 | 15.6 | 0.15 | 0.15 | 0.15 | 82 | 1008.1 |
| 20260505174422 | 56 | 285 | 8.7 | 17.4 | 0.13 | 0.13 | 0.13 | 81 | 1008.2 |
| 20260505174320 | 57 | 229 | 8.7 | 18.2 | 0.10 | 0.10 | 0.11 | 81 | 1008.3 |
| 20260505174218 | 57 | 273 | 8.7 | 18.2 | 0.08 | 0.08 | 0.09 | 81 | 1008.2 |
| 20260505174113 | 58 | 259 | 7.0 | 18.2 | 0.08 | 0.08 | 0.08 | 80 | 1008.4 |
| 20260505174012 | 58 | 269 | 6.1 | 18.2 | 0.06 | 0.06 | 0.06 | 79 | 1008.4 |
| 20260505173911 | 58 | 256 | 6.1 | 18.2 | 0.03 | 0.03 | 0.04 | 78 | 1008.5 |
| 20260505173809 | 59 | 246 | 7.8 | 18.2 | 0.02 | 0.02 | 0.02 | 77 | 1008.4 |
| 20260505173708 | 59 | 238 | 8.7 | 18.2 | 0.02 | 0.02 | 0.02 | 77 | 1008.4 |
| 20260505173611 | 60 | 250 | 10.4 | 18.2 | 0.00 | 0.00 | 0.01 | 76 | 1008.4 |
| 20260505173509 | 60 | 249 | 7.8 | 18.2 | 0.00 | 0.00 | 0.00 | 74 | 1008.4 |
| 20260505173409 | 61 | 222 | 6.1 | 18.2 | 0.00 | 0.00 | 0.00 | 72 | 1008.5 |
| 20260505173308 | 61 | 178 | 6.1 | 17.4 | 0.00 | 0.00 | 0.00 | 71 | 1008.3 |
| 20260505173227 | 61 | 216 | 6.1 | 17.4 | 0.00 | 0.00 | 0.00 | 70 | 1008.4 |
| 20260505173149 | 62 | 280 | 7.8 | 17.4 | 0.00 | 0.00 | 0.00 | 68 | 1008.2 |
| 20260505173010 | 62 | 223 | 9.6 | 17.4 | 0.00 | 0.00 | 0.00 | 66 | 1008.2 |
| 20260505172935 | 62 | 216 | 12.2 | 17.4 | 0.00 | 0.00 | 0.00 | 65 | 1008.3 |
| 20260505172902 | 62 | 216 | 13.0 | 17.4 | 0.00 | 0.00 | 0.00 | 65 | 1008.4 |
| 20260505172659 | 63 | 250 | 10.4 | 17.4 | 0.00 | 0.00 | 0.00 | 65 | 1008.3 |
| 20260505172558 | 63 | 232 | 7.0 | 17.4 | 0.00 | 0.00 | 0.00 | 66 | 1008.2 |
| 20260505172507 | 63 | 216 | 2.6 | 11.3 | 0.00 | 0.00 | 0.00 | 68 | 1008.4 |
| 20260505172434 | 63 | 233 | 0.9 | 4.3 | 0.00 | 0.00 | 0.00 | 67 | 1007.9 |
| 20260505172359 | 63 | 291 | 0.0 | 3.5 | 0.00 | 0.00 | 0.00 | 67 | 1007.6 |
| 20260505172154 | 63 | 323 | 0.0 | 3.5 | 0.00 | 0.00 | 0.00 | 67 | 1007.4 |
| 20260505172048 | 63 | 322 | 0.9 | 5.2 | 0.00 | 0.00 | 0.00 | 67 | 1007.2 |
| 20260505171947 | 63 | 320 | 0.9 | 5.2 | 0.00 | 0.00 | 0.00 | 67 | 1007.2 |
| 20260505171843 | 63 | 320 | 0.9 | 5.2 | 0.00 | 0.00 | 0.00 | 67 | 1007.1 |
| 20260505171742 | 63 | 324 | 0.0 | 5.2 | 0.00 | 0.00 | 0.00 | 67 | 1007.2 |
| 20260505171643 | 63 | 326 | 0.9 | 5.2 | 0.00 | 0.00 | 0.00 | 67 | 1007.1 |
| 20260505171536 | 63 | 326 | 0.9 | 6.1 | 0.00 | 0.00 | 0.00 | 67 | 1007.0 |
| 20260505171432 | 63 | 324 | 0.0 | 6.1 | 0.00 | 0.00 | 0.00 | 67 | 1007.0 |
| 20260505171333 | 63 | 324 | 0.0 | 6.1 | 0.00 | 0.00 | 0.00 | 67 | 1007.1 |
| 20260505171229 | 63 | 324 | 0.9 | 6.1 | 0.00 | 0.00 | 0.00 | 67 | 1007.1 |
| 20260505171131 | 64 | 324 | 0.9 | 6.1 | 0.00 | 0.00 | 0.00 | 67 | 1007.0 |
| 20260505171024 | 64 | 330 | 0.9 | 6.1 | 0.00 | 0.00 | 0.00 | 67 | 1007.1 |
| 20260505170921 | 64 | 344 | 0.9 | 6.1 | 0.00 | 0.00 | 0.00 | 67 | 1007.0 |
| 20260505170820 | 64 | 1 | 1.7 | 6.1 | 0.00 | 0.00 | 0.00 | 67 | 1007.0 |
| 20260505170719 | 64 | 324 | 3.5 | 6.1 | 0.00 | 0.00 | 0.00 | 67 | 1007.1 |
| 20260505170618 | 64 | 329 | 2.6 | 6.1 | 0.00 | 0.00 | 0.00 | 67 | 1007.0 |
| 20260505170516 | 64 | 322 | 0.9 | 6.1 | 0.00 | 0.00 | 0.00 | 67 | 1007.0 |
| 20260505170417 | 64 | 328 | 0.9 | 4.3 | 0.00 | 0.00 | 0.00 | 67 | 1007.0 |
| 20260505170315 | 64 | 328 | 0.9 | 4.3 | 0.00 | 0.00 | 0.00 | 67 | 1007.0 |
| 20260505170215 | 64 | 12 | 0.9 | 5.2 | 0.00 | 0.00 | 0.00 | 67 | 1007.0 |
| 20260505170114 | 64 | 329 | 0.0 | 5.2 | 0.00 | 0.00 | 0.00 | 67 | 1007.0 |
| 20260505170013 | 64 | 329 | 0.9 | 5.2 | 0.00 | 0.00 | 0.00 | 66 | 1006.9 |
| 20260505165911 | 64 | 329 | 0.0 | 5.2 | 0.00 | 0.00 | 0.00 | 67 | 1007.0 |
| 20260505165811 | 64 | 28 | 0.0 | 5.2 | 0.00 | 0.00 | 0.00 | 67 | 1006.9 |
| 20260505165708 | 64 | 31 | 0.0 | 5.2 | 0.00 | 0.00 | 0.00 | 67 | 1006.9 |
| 20260505165607 | 64 | 31 | 1.7 | 5.2 | 0.00 | 0.00 | 0.00 | 66 | 1007.0 |
| 20260505165505 | 64 | 31 | 1.7 | 5.2 | 0.00 | 0.00 | 0.00 | 66 | 1006.9 |
| 20260505165432 | 64 | 27 | 1.7 | 5.2 | 0.00 | 0.00 | 0.00 | 66 | 1007.0 |
| 20260505165358 | 64 | 31 | 1.7 | 5.2 | 0.00 | 0.00 | 0.00 | 66 | 1007.0 |
| 20260505165201 | 64 | 26 | 1.7 | 5.2 | 0.00 | 0.00 | 0.00 | 66 | 1007.0 |
| 20260505165100 | 64 | 17 | 0.9 | 5.2 | 0.00 | 0.00 | 0.00 | 66 | 1007.0 |
| 20260505164959 | 64 | 0 | 1.7 | 5.2 | 0.00 | 0.00 | 0.00 | 66 | 1007.0 |
| 20260505164857 | 64 | 345 | 2.6 | 5.2 | 0.00 | 0.00 | 0.00 | 66 | 1007.1 |
| 20260505164756 | 64 | 17 | 1.7 | 5.2 | 0.00 | 0.00 | 0.00 | 66 | 1007.0 |
| 20260505164653 | 64 | 27 | 0.9 | 5.2 | 0.00 | 0.00 | 0.00 | 66 | 1007.0 |
| 20260505164552 | 64 | 26 | 1.7 | 5.2 | 0.00 | 0.00 | 0.00 | 66 | 1007.1 |
| 20260505164447 | 64 | 24 | 2.6 | 7.0 | 0.00 | 0.00 | 0.00 | 66 | 1007.1 |
| 20260505164346 | 64 | 24 | 1.7 | 7.0 | 0.00 | 0.00 | 0.00 | 67 | 1007.0 |
| 20260505164251 | 64 | 35 | 1.7 | 7.0 | 0.00 | 0.00 | 0.00 | 67 | 1007.1 |
| 20260505164147 | 64 | 31 | 1.7 | 7.0 | 0.00 | 0.00 | 0.00 | 67 | 1007.1 |
| 20260505164046 | 64 | 53 | 1.7 | 7.0 | 0.00 | 0.00 | 0.00 | 68 | 1007.1 |
| 20260505163946 | 64 | 39 | 2.6 | 7.0 | 0.00 | 0.00 | 0.00 | 67 | 1007.1 |
| 20260505163845 | 64 | 45 | 2.6 | 7.0 | 0.00 | 0.00 | 0.00 | 67 | 1007.1 |
| 20260505163644 | 64 | 16 | 2.6 | 7.0 | 0.00 | 0.00 | 0.00 | 68 | 1007.2 |
| 20260505163540 | 64 | 32 | 2.6 | 7.0 | 0.00 | 0.00 | 0.00 | 67 | 1007.1 |
| 20260505163437 | 64 | 322 | 1.7 | 7.8 | 0.00 | 0.00 | 0.00 | 68 | 1007.1 |
| 20260505163334 | 64 | 34 | 0.9 | 7.8 | 0.00 | 0.00 | 0.00 | 68 | 1007.1 |
| 20260505163238 | 64 | 20 | 0.0 | 7.8 | 0.00 | 0.00 | 0.00 | 68 | 1007.2 |
| 20260505163141 | 64 | 20 | 1.7 | 7.8 | 0.00 | 0.00 | 0.00 | 68 | 1007.1 |
| 20260505163035 | 65 | 18 | 1.7 | 7.8 | 0.00 | 0.00 | 0.00 | 67 | 1007.1 |
| 20260505162933 | 65 | 29 | 0.9 | 7.8 | 0.00 | 0.00 | 0.00 | 67 | 1007.1 |
| 20260505162831 | 65 | 39 | 2.6 | 7.8 | 0.00 | 0.00 | 0.00 | 67 | 1007.2 |
| 20260505162730 | 65 | 40 | 3.5 | 7.8 | 0.00 | 0.00 | 0.00 | 66 | 1007.2 |
| 20260505162630 | 65 | 33 | 4.3 | 7.8 | 0.00 | 0.00 | 0.00 | 67 | 1007.2 |
| 20260505162536 | 65 | 15 | 4.3 | 7.8 | 0.00 | 0.00 | 0.00 | 67 | 1007.2 |
| 20260505162427 | 65 | 5 | 3.5 | 7.8 | 0.00 | 0.00 | 0.00 | 66 | 1007.3 |
| 20260505162326 | 65 | 350 | 3.5 | 7.8 | 0.00 | 0.00 | 0.00 | 66 | 1007.3 |
| 20260505162224 | 65 | 353 | 4.3 | 9.6 | 0.00 | 0.00 | 0.00 | 66 | 1007.3 |
| 20260505162123 | 65 | 25 | 1.7 | 9.6 | 0.00 | 0.00 | 0.00 | 67 | 1007.3 |
| 20260505162022 | 65 | 36 | 1.7 | 11.3 | 0.00 | 0.00 | 0.00 | 66 | 1007.2 |
| 20260505161921 | 65 | 13 | 2.6 | 11.3 | 0.00 | 0.00 | 0.00 | 67 | 1007.3 |
| 20260505161820 | 65 | 40 | 4.3 | 11.3 | 0.00 | 0.00 | 0.00 | 66 | 1007.3 |
| 20260505161714 | 65 | 24 | 4.3 | 11.3 | 0.00 | 0.00 | 0.00 | 66 | 1007.3 |
| 20260505161616 | 65 | 4 | 3.5 | 11.3 | 0.00 | 0.00 | 0.00 | 66 | 1007.3 |
| 20260505161523 | 65 | 43 | 3.5 | 11.3 | 0.00 | 0.00 | 0.00 | 66 | 1007.3 |
| 20260505161414 | 65 | 45 | 4.3 | 12.2 | 0.00 | 0.00 | 0.00 | 66 | 1007.3 |
| 20260505161313 | 65 | 35 | 5.2 | 12.2 | 0.00 | 0.00 | 0.00 | 66 | 1007.3 |
| 20260505161208 | 65 | 22 | 5.2 | 12.2 | 0.00 | 0.00 | 0.00 | 66 | 1007.4 |
| 20260505161110 | 65 | 43 | 5.2 | 12.2 | 0.00 | 0.00 | 0.00 | 66 | 1007.4 |
| 20260505161009 | 65 | 14 | 4.3 | 12.2 | 0.00 | 0.00 | 0.00 | 66 | 1007.4 |
| 20260505160935 | 65 | 46 | 4.3 | 12.2 | 0.00 | 0.00 | 0.00 | 66 | 1007.4 |
| 20260505160854 | 65 | 14 | 5.2 | 12.2 | 0.00 | 0.00 | 0.00 | 67 | 1007.4 |
| 20260505160706 | 65 | 61 | 6.1 | 12.2 | 0.00 | 0.00 | 0.00 | 66 | 1007.3 |
| 20260505160604 | 65 | 28 | 6.1 | 12.2 | 0.00 | 0.00 | 0.00 | 66 | 1007.3 |
| 20260505160505 | 66 | 60 | 4.3 | 12.2 | 0.00 | 0.00 | 0.00 | 66 | 1007.3 |
| 20260505160424 | 66 | 74 | 4.3 | 10.4 | 0.00 | 0.00 | 0.00 | 66 | 1007.4 |
| 20260505160351 | 66 | 52 | 5.2 | 10.4 | 0.00 | 0.00 | 0.00 | 66 | 1007.4 |
| 20260505160159 | 66 | 20 | 5.2 | 10.4 | 0.00 | 0.00 | 0.00 | 66 | 1007.4 |
| 20260505160106 | 66 | 14 | 3.5 | 10.4 | 0.00 | 0.00 | 0.00 | 66 | 1007.3 |
| 20260505153312 | 66 | 46 | 1.7 | 7.0 | 0.00 | 0.00 | 0.00 | 67 | 1007.6 |
| 20260505153211 | 66 | 12 | 2.6 | 7.0 | 0.00 | 0.00 | 0.00 | 67 | 1007.6 |
| 20260505153106 | 66 | 348 | 1.7 | 7.0 | 0.00 | 0.00 | 0.00 | 67 | 1007.6 |
| 20260505153007 | 66 | 359 | 2.6 | 6.1 | 0.00 | 0.00 | 0.00 | 67 | 1007.6 |
| 20260505152906 | 66 | 70 | 1.7 | 6.1 | 0.00 | 0.00 | 0.00 | 67 | 1007.7 |
| 20260505152806 | 66 | 29 | 2.6 | 7.0 | 0.00 | 0.00 | 0.00 | 67 | 1007.6 |
| 20260505152701 | 66 | 10 | 3.5 | 7.0 | 0.00 | 0.00 | 0.00 | 67 | 1007.7 |
| 20260505152559 | 66 | 28 | 3.5 | 7.0 | 0.00 | 0.00 | 0.00 | 67 | 1007.6 |
| 20260505152459 | 66 | 58 | 2.6 | 7.0 | 0.00 | 0.00 | 0.00 | 67 | 1007.6 |
| 20260505152357 | 66 | 37 | 2.6 | 7.0 | 0.00 | 0.00 | 0.00 | 67 | 1007.7 |
| 20260505152256 | 66 | 40 | 2.6 | 8.7 | 0.00 | 0.00 | 0.00 | 68 | 1007.7 |
| 20260505152154 | 66 | 26 | 2.6 | 8.7 | 0.00 | 0.00 | 0.00 | 68 | 1007.7 |
| 20260505152052 | 66 | 32 | 3.5 | 8.7 | 0.00 | 0.00 | 0.00 | 68 | 1007.7 |
| 20260505152000 | 65 | 53 | 2.6 | 8.7 | 0.00 | 0.00 | 0.00 | 68 | 1007.8 |
| 20260505151927 | 65 | 24 | 1.7 | 8.7 | 0.00 | 0.00 | 0.00 | 68 | 1007.7 |
| 20260505151839 | 65 | 42 | 2.6 | 8.7 | 0.00 | 0.00 | 0.00 | 68 | 1007.8 |
| 20260505151655 | 65 | 51 | 3.5 | 8.7 | 0.00 | 0.00 | 0.00 | 68 | 1007.7 |
| 20260505151554 | 65 | 47 | 5.2 | 8.7 | 0.00 | 0.00 | 0.00 | 68 | 1007.8 |
| 20260505151444 | 65 | 29 | 3.5 | 8.7 | 0.00 | 0.00 | 0.00 | 68 | 1007.8 |
| 20260505151340 | 65 | 28 | 0.9 | 8.7 | 0.00 | 0.00 | 0.00 | 68 | 1007.8 |
| 20260505151237 | 65 | 6 | 2.6 | 8.7 | 0.00 | 0.00 | 0.00 | 68 | 1007.8 |
| 20260505151140 | 65 | 326 | 2.6 | 8.7 | 0.00 | 0.00 | 0.00 | 68 | 1007.8 |
| 20260505151038 | 65 | 13 | 0.9 | 9.6 | 0.00 | 0.00 | 0.00 | 68 | 1007.7 |
| 20260505150938 | 65 | 333 | 1.7 | 9.6 | 0.00 | 0.00 | 0.00 | 67 | 1007.8 |
| 20260505150835 | 65 | 335 | 1.7 | 12.2 | 0.00 | 0.00 | 0.00 | 67 | 1007.8 |
| 20260505150734 | 65 | 26 | 2.6 | 12.2 | 0.00 | 0.00 | 0.00 | 67 | 1007.8 |
| 20260505150635 | 65 | 8 | 3.5 | 12.2 | 0.00 | 0.00 | 0.00 | 67 | 1007.8 |
| 20260505150531 | 66 | 29 | 2.6 | 12.2 | 0.00 | 0.00 | 0.00 | 67 | 1007.8 |
| 20260505150441 | 66 | 35 | 3.5 | 12.2 | 0.00 | 0.00 | 0.00 | 67 | 1007.8 |
| 20260505150410 | 66 | 32 | 4.3 | 12.2 | 0.00 | 0.00 | 0.00 | 66 | 1007.8 |
| 20260505150329 | 66 | 18 | 3.5 | 12.2 | 0.00 | 0.00 | 0.00 | 66 | 1007.8 |
| 20260505150128 | 66 | 45 | 5.2 | 12.2 | 0.00 | 0.00 | 0.00 | 65 | 1007.8 |
| 20260505140611 | 67 | 319 | 3.5 | 9.6 | 0.00 | 0.00 | 0.00 | 61 | 1008.0 |
| 20260505140509 | 67 | 330 | 2.6 | 9.6 | 0.00 | 0.00 | 0.00 | 62 | 1008.0 |
| 20260505140408 | 67 | 313 | 2.6 | 8.7 | 0.00 | 0.00 | 0.00 | 62 | 1008.1 |
| 20260505140307 | 67 | 29 | 2.6 | 8.7 | 0.00 | 0.00 | 0.00 | 62 | 1008.0 |
| 20260505140209 | 67 | 336 | 1.7 | 10.4 | 0.00 | 0.00 | 0.00 | 62 | 1008.0 |
| 20260505140106 | 67 | 334 | 1.7 | 10.4 | 0.00 | 0.00 | 0.00 | 62 | 1008.0 |
| 20260505130239 | 68 | 315 | 3.5 | 10.4 | 0.00 | 0.00 | 0.00 | 58 | 1008.5 |
| 20260505130145 | 68 | 14 | 2.6 | 10.4 | 0.00 | 0.00 | 0.00 | 58 | 1008.4 |
| 20260505125022 | 69 | 331 | 3.5 | 13.0 | 0.00 | 0.00 | 0.00 | 57 | 1008.4 |
| 20260505124921 | 69 | 333 | 5.2 | 13.0 | 0.00 | 0.00 | 0.00 | 57 | 1008.5 |
| 20260505124820 | 69 | 328 | 6.1 | 13.0 | 0.00 | 0.00 | 0.00 | 57 | 1008.5 |
| 20260505124718 | 69 | 318 | 3.5 | 9.6 | 0.00 | 0.00 | 0.00 | 58 | 1008.5 |
| 20260505124617 | 69 | 11 | 3.5 | 7.8 | 0.00 | 0.00 | 0.00 | 58 | 1008.5 |
| 20260505124513 | 70 | 43 | 3.5 | 9.6 | 0.00 | 0.00 | 0.00 | 57 | 1008.5 |
| 20260505124412 | 70 | 346 | 2.6 | 9.6 | 0.00 | 0.00 | 0.00 | 57 | 1008.5 |
| 20260505124312 | 71 | 335 | 2.6 | 9.6 | 0.00 | 0.00 | 0.00 | 58 | 1008.4 |
| 20260505124210 | 71 | 6 | 2.6 | 9.6 | 0.00 | 0.00 | 0.00 | 58 | 1008.4 |
| 20260505124108 | 70 | 322 | 1.7 | 9.6 | 0.00 | 0.00 | 0.00 | 57 | 1008.4 |
| 20260505124009 | 70 | 331 | 1.7 | 9.6 | 0.00 | 0.00 | 0.00 | 59 | 1008.5 |
| 20260505123908 | 70 | 327 | 1.7 | 9.6 | 0.00 | 0.00 | 0.00 | 58 | 1008.5 |
| 20260505123806 | 70 | 318 | 3.5 | 10.4 | 0.00 | 0.00 | 0.00 | 58 | 1008.4 |
| 20260505123706 | 70 | 326 | 2.6 | 10.4 | 0.00 | 0.00 | 0.00 | 58 | 1008.4 |
| 20260505123603 | 69 | 356 | 3.5 | 10.4 | 0.00 | 0.00 | 0.00 | 57 | 1008.5 |
| 20260505123503 | 69 | 337 | 3.5 | 10.4 | 0.00 | 0.00 | 0.00 | 58 | 1008.5 |
| 20260505123401 | 69 | 340 | 4.3 | 10.4 | 0.00 | 0.00 | 0.00 | 58 | 1008.5 |
| 20260505123309 | 68 | 334 | 3.5 | 10.4 | 0.00 | 0.00 | 0.00 | 58 | 1008.5 |
| 20260505123158 | 68 | 319 | 3.5 | 10.4 | 0.00 | 0.00 | 0.00 | 58 | 1008.5 |
| 20260505123058 | 68 | 324 | 4.3 | 10.4 | 0.00 | 0.00 | 0.00 | 57 | 1008.5 |
| 20260505122957 | 68 | 315 | 5.2 | 10.4 | 0.00 | 0.00 | 0.00 | 58 | 1008.5 |
| 20260505122852 | 68 | 313 | 4.3 | 10.4 | 0.00 | 0.00 | 0.00 | 58 | 1008.5 |
| 20260505122750 | 68 | 323 | 4.3 | 9.6 | 0.00 | 0.00 | 0.00 | 58 | 1008.5 |
| 20260505122551 | 68 | 339 | 5.2 | 9.6 | 0.00 | 0.00 | 0.00 | 57 | 1008.5 |
| 20260505122447 | 68 | 322 | 4.3 | 9.6 | 0.00 | 0.00 | 0.00 | 58 | 1008.5 |
| 20260505122345 | 68 | 331 | 1.7 | 8.7 | 0.00 | 0.00 | 0.00 | 58 | 1008.5 |
| 20260505122243 | 68 | 330 | 1.7 | 10.4 | 0.00 | 0.00 | 0.00 | 59 | 1008.5 |
| 20260505122142 | 68 | 326 | 1.7 | 12.2 | 0.00 | 0.00 | 0.00 | 59 | 1008.5 |
| 20260505122041 | 68 | 331 | 2.6 | 12.2 | 0.00 | 0.00 | 0.00 | 59 | 1008.6 |
| 20260505121943 | 68 | 325 | 4.3 | 12.2 | 0.00 | 0.00 | 0.00 | 59 | 1008.5 |
| 20260505121838 | 68 | 320 | 5.2 | 12.2 | 0.00 | 0.00 | 0.00 | 59 | 1008.5 |
| 20260505121737 | 68 | 319 | 4.3 | 12.2 | 0.00 | 0.00 | 0.00 | 59 | 1008.6 |
| 20260505121639 | 68 | 329 | 3.5 | 12.2 | 0.00 | 0.00 | 0.00 | 59 | 1008.5 |
| 20260505121601 | 68 | 329 | 2.6 | 12.2 | 0.00 | 0.00 | 0.00 | 59 | 1008.5 |
| 20260505121525 | 68 | 355 | 5.2 | 12.2 | 0.00 | 0.00 | 0.00 | 58 | 1008.6 |
| 20260505121347 | 69 | 329 | 6.1 | 12.2 | 0.00 | 0.00 | 0.00 | 58 | 1008.6 |
| 20260505121308 | 69 | 331 | 4.3 | 10.4 | 0.00 | 0.00 | 0.00 | 59 | 1008.5 |
| 20260505121235 | 69 | 324 | 4.3 | 10.4 | 0.00 | 0.00 | 0.00 | 58 | 1008.6 |
| 20260505121032 | 69 | 321 | 4.3 | 9.6 | 0.00 | 0.00 | 0.00 | 59 | 1008.6 |
| 20260505120930 | 69 | 323 | 1.7 | 9.6 | 0.00 | 0.00 | 0.00 | 59 | 1008.6 |
| 20260505120827 | 69 | 334 | 2.6 | 9.6 | 0.00 | 0.00 | 0.00 | 59 | 1008.6 |
| 20260505120724 | 69 | 320 | 3.5 | 9.6 | 0.00 | 0.00 | 0.00 | 59 | 1008.6 |
| 20260505120528 | 69 | 313 | 4.3 | 7.8 | 0.00 | 0.00 | 0.00 | 59 | 1008.6 |
| 20260505120423 | 69 | 303 | 3.5 | 7.8 | 0.00 | 0.00 | 0.00 | 59 | 1008.6 |
| 20260505120322 | 69 | 298 | 3.5 | 11.3 | 0.00 | 0.00 | 0.00 | 60 | 1008.7 |
| 20260505120218 | 69 | 317 | 2.6 | 11.3 | 0.00 | 0.00 | 0.00 | 59 | 1008.6 |
| 20260505120015 | 69 | 336 | 0.9 | 11.3 | 0.00 | 0.00 | 0.00 | 59 | 1008.7 |
| 20260505115918 | 69 | 351 | 0.9 | 11.3 | 0.00 | 0.00 | 0.00 | 59 | 1008.6 |
| 20260505115812 | 69 | 331 | 1.7 | 11.3 | 0.00 | 0.00 | 0.00 | 58 | 1008.6 |
| 20260505115712 | 70 | 334 | 1.7 | 11.3 | 0.00 | 0.00 | 0.00 | 58 | 1008.7 |
| 20260505115610 | 70 | 308 | 2.6 | 11.3 | 0.00 | 0.00 | 0.00 | 58 | 1008.7 |
| 20260505115509 | 70 | 340 | 4.3 | 11.3 | 0.00 | 0.00 | 0.00 | 58 | 1008.7 |
| 20260505115408 | 70 | 322 | 6.1 | 11.3 | 0.00 | 0.00 | 0.00 | 58 | 1008.7 |
| 20260505115306 | 70 | 324 | 5.2 | 12.2 | 0.00 | 0.00 | 0.00 | 57 | 1008.6 |
| 20260505115205 | 71 | 327 | 5.2 | 12.2 | 0.00 | 0.00 | 0.00 | 57 | 1008.6 |
| 20260505115107 | 71 | 327 | 5.2 | 12.2 | 0.00 | 0.00 | 0.00 | 57 | 1008.6 |
| 20260505115002 | 71 | 319 | 6.1 | 12.2 | 0.00 | 0.00 | 0.00 | 57 | 1008.6 |
| 20260505114905 | 71 | 332 | 6.1 | 12.2 | 0.00 | 0.00 | 0.00 | 57 | 1008.6 |
| 20260505114825 | 71 | 320 | 6.1 | 12.2 | 0.00 | 0.00 | 0.00 | 57 | 1008.6 |
| 20260505114743 | 72 | 320 | 6.1 | 12.2 | 0.00 | 0.00 | 0.00 | 56 | 1008.7 |
| 20260505114558 | 72 | 330 | 7.8 | 12.2 | 0.00 | 0.00 | 0.00 | 57 | 1008.7 |
| 20260505114500 | 72 | 337 | 8.7 | 12.2 | 0.00 | 0.00 | 0.00 | 56 | 1008.7 |
| 20260505114359 | 72 | 325 | 7.0 | 12.2 | 0.00 | 0.00 | 0.00 | 56 | 1008.8 |
| 20260505114253 | 72 | 318 | 7.0 | 11.3 | 0.00 | 0.00 | 0.00 | 57 | 1008.8 |
| 20260505114152 | 72 | 314 | 6.1 | 11.3 | 0.00 | 0.00 | 0.00 | 56 | 1008.8 |
| 20260505114051 | 71 | 316 | 4.3 | 11.3 | 0.00 | 0.00 | 0.00 | 56 | 1008.8 |
| 20260505113951 | 71 | 322 | 1.7 | 7.0 | 0.00 | 0.00 | 0.00 | 57 | 1008.8 |
| 20260505113852 | 71 | 318 | 2.6 | 7.0 | 0.00 | 0.00 | 0.00 | 57 | 1008.8 |
| 20260505113751 | 71 | 14 | 3.5 | 7.0 | 0.00 | 0.00 | 0.00 | 56 | 1008.8 |
| 20260505113650 | 71 | 322 | 2.6 | 7.0 | 0.00 | 0.00 | 0.00 | 55 | 1008.8 |
| 20260505113548 | 71 | 288 | 1.7 | 7.0 | 0.00 | 0.00 | 0.00 | 55 | 1008.8 |
| 20260505113447 | 71 | 328 | 0.9 | 6.1 | 0.00 | 0.00 | 0.00 | 54 | 1008.8 |
| 20260505113346 | 71 | 353 | 1.7 | 6.1 | 0.00 | 0.00 | 0.00 | 52 | 1008.8 |
| 20260505113245 | 71 | 38 | 3.5 | 6.1 | 0.00 | 0.00 | 0.00 | 51 | 1008.8 |
| 20260505113152 | 71 | 32 | 3.5 | 6.1 | 0.00 | 0.00 | 0.00 | 52 | 1008.9 |
| 20260505113042 | 71 | 68 | 1.7 | 6.1 | 0.00 | 0.00 | 0.00 | 52 | 1008.8 |
| 20260505112942 | 70 | 75 | 0.0 | 6.1 | 0.00 | 0.00 | 0.00 | 50 | 1008.8 |
| 20260505112840 | 70 | 37 | 0.9 | 7.0 | 0.00 | 0.00 | 0.00 | 51 | 1008.8 |
| 20260505112739 | 70 | 37 | 0.9 | 7.0 | 0.00 | 0.00 | 0.00 | 51 | 1008.9 |
| 20260505112638 | 70 | 54 | 0.9 | 7.0 | 0.00 | 0.00 | 0.00 | 52 | 1008.9 |
| 20260505112545 | 70 | 41 | 1.7 | 7.0 | 0.00 | 0.00 | 0.00 | 52 | 1008.8 |
| 20260505112436 | 70 | 41 | 1.7 | 7.0 | 0.00 | 0.00 | 0.00 | 52 | 1008.9 |
| 20260505112334 | 70 | 37 | 1.7 | 7.0 | 0.00 | 0.00 | 0.00 | 54 | 1008.8 |
| 20260505112233 | 69 | 50 | 3.5 | 7.0 | 0.00 | 0.00 | 0.00 | 55 | 1008.9 |
| 20260505112134 | 69 | 53 | 4.3 | 7.0 | 0.00 | 0.00 | 0.00 | 54 | 1008.9 |
| 20260505112030 | 69 | 51 | 3.5 | 7.0 | 0.00 | 0.00 | 0.00 | 54 | 1008.9 |
| 20260505111928 | 69 | 69 | 1.7 | 4.3 | 0.00 | 0.00 | 0.00 | 56 | 1008.9 |
| 20260505111827 | 69 | 30 | 0.9 | 4.3 | 0.00 | 0.00 | 0.00 | 56 | 1009.0 |
| 20260505111753 | 69 | 356 | 0.9 | 4.3 | 0.00 | 0.00 | 0.00 | 56 | 1008.9 |
| 20260505111721 | 69 | 1 | 0.9 | 4.3 | 0.00 | 0.00 | 0.00 | 56 | 1009.0 |
| 20260505111525 | 69 | 359 | 0.9 | 4.3 | 0.00 | 0.00 | 0.00 | 56 | 1009.0 |
| 20260505111423 | 69 | 1 | 0.9 | 4.3 | 0.00 | 0.00 | 0.00 | 57 | 1008.9 |
| 20260505111322 | 69 | 8 | 1.7 | 6.1 | 0.00 | 0.00 | 0.00 | 58 | 1009.0 |
| 20260505111220 | 69 | 49 | 1.7 | 6.1 | 0.00 | 0.00 | 0.00 | 58 | 1009.0 |
| 20260505111116 | 68 | 49 | 0.9 | 6.1 | 0.00 | 0.00 | 0.00 | 58 | 1008.9 |
| 20260505111017 | 68 | 14 | 0.9 | 8.7 | 0.00 | 0.00 | 0.00 | 59 | 1009.0 |
| 20260505110916 | 68 | 28 | 0.0 | 8.7 | 0.00 | 0.00 | 0.00 | 58 | 1008.9 |
| 20260505110814 | 68 | 28 | 0.0 | 8.7 | 0.00 | 0.00 | 0.00 | 59 | 1008.9 |
| 20260505110715 | 68 | 28 | 0.9 | 8.7 | 0.00 | 0.00 | 0.00 | 58 | 1009.0 |
| 20260505110613 | 68 | 29 | 1.7 | 8.7 | 0.00 | 0.00 | 0.00 | 58 | 1009.0 |
| 20260505110514 | 68 | 29 | 2.6 | 8.7 | 0.00 | 0.00 | 0.00 | 58 | 1009.0 |
| 20260505110411 | 68 | 28 | 2.6 | 8.7 | 0.00 | 0.00 | 0.00 | 58 | 1009.0 |
| 20260505110309 | 68 | 24 | 1.7 | 8.7 | 0.00 | 0.00 | 0.00 | 58 | 1009.0 |
| 20260505110208 | 69 | 25 | 3.5 | 8.7 | 0.00 | 0.00 | 0.00 | 59 | 1009.0 |
| 20260505110112 | 69 | 35 | 1.7 | 8.7 | 0.00 | 0.00 | 0.00 | 58 | 1009.0 |
| 20260505102214 | 71 | 90 | 2.6 | 7.8 | 0.00 | 0.00 | 0.00 | 54 | 1009.2 |
| 20260505102113 | 71 | 84 | 2.6 | 7.8 | 0.00 | 0.00 | 0.00 | 55 | 1009.3 |
| 20260505102012 | 71 | 94 | 2.6 | 7.8 | 0.00 | 0.00 | 0.00 | 55 | 1009.3 |
| 20260505101911 | 71 | 103 | 2.6 | 7.8 | 0.00 | 0.00 | 0.00 | 56 | 1009.3 |
| 20260505101808 | 71 | 66 | 3.5 | 7.8 | 0.00 | 0.00 | 0.00 | 56 | 1009.4 |
| 20260505101707 | 71 | 72 | 3.5 | 7.8 | 0.00 | 0.00 | 0.00 | 55 | 1009.4 |
| 20260505101607 | 71 | 85 | 2.6 | 6.1 | 0.00 | 0.00 | 0.00 | 55 | 1009.4 |
| 20260505101505 | 71 | 115 | 2.6 | 5.2 | 0.00 | 0.00 | 0.00 | 55 | 1009.4 |
| 20260505101403 | 70 | 91 | 3.5 | 6.1 | 0.00 | 0.00 | 0.00 | 55 | 1009.5 |
| 20260505101304 | 71 | 83 | 3.5 | 6.1 | 0.00 | 0.00 | 0.00 | 56 | 1009.5 |
| 20260505101201 | 71 | 45 | 2.6 | 6.1 | 0.00 | 0.00 | 0.00 | 55 | 1009.6 |
| 20260505101100 | 71 | 68 | 2.6 | 7.0 | 0.00 | 0.00 | 0.00 | 56 | 1009.5 |
| 20260505101001 | 70 | 121 | 1.7 | 7.0 | 0.00 | 0.00 | 0.00 | 56 | 1009.5 |
| 20260505100856 | 70 | 97 | 1.7 | 7.0 | 0.00 | 0.00 | 0.00 | 58 | 1009.4 |
| 20260505100755 | 70 | 53 | 2.6 | 7.0 | 0.00 | 0.00 | 0.00 | 57 | 1009.6 |
| 20260505100653 | 69 | 38 | 3.5 | 7.0 | 0.00 | 0.00 | 0.00 | 56 | 1009.6 |
| 20260505100553 | 69 | 80 | 3.5 | 7.0 | 0.00 | 0.00 | 0.00 | 56 | 1009.5 |
| 20260505100457 | 69 | 68 | 3.5 | 7.0 | 0.00 | 0.00 | 0.00 | 57 | 1009.6 |
| 20260505100353 | 69 | 63 | 4.3 | 7.0 | 0.00 | 0.00 | 0.00 | 56 | 1009.6 |
| 20260505100301 | 69 | 63 | 4.3 | 7.0 | 0.00 | 0.00 | 0.00 | 57 | 1009.7 |
| 20260505100151 | 69 | 53 | 3.5 | 9.6 | 0.00 | 0.00 | 0.00 | 57 | 1009.6 |
| 20260505100101 | 69 | 73 | 5.2 | 9.6 | 0.00 | 0.00 | 0.00 | 58 | 1009.6 |
| 20260505095950 | 69 | 66 | 4.3 | 9.6 | 0.00 | 0.00 | 0.00 | 58 | 1009.6 |
| 20260505095847 | 69 | 78 | 4.3 | 9.6 | 0.00 | 0.00 | 0.00 | 58 | 1009.6 |
| 20260505095755 | 69 | 85 | 3.5 | 9.6 | 0.00 | 0.00 | 0.00 | 57 | 1009.7 |
| 20260505095721 | 69 | 72 | 2.6 | 9.6 | 0.00 | 0.00 | 0.00 | 58 | 1009.6 |
| 20260505095647 | 69 | 110 | 4.3 | 9.6 | 0.00 | 0.00 | 0.00 | 57 | 1009.7 |
| 20260505095441 | 69 | 99 | 5.2 | 9.6 | 0.00 | 0.00 | 0.00 | 58 | 1009.6 |
| 20260505095340 | 69 | 45 | 4.3 | 9.6 | 0.00 | 0.00 | 0.00 | 58 | 1009.6 |
| 20260505095238 | 69 | 76 | 2.6 | 9.6 | 0.00 | 0.00 | 0.00 | 59 | 1009.7 |
| 20260505095137 | 69 | 76 | 3.5 | 9.6 | 0.00 | 0.00 | 0.00 | 58 | 1009.7 |
| 20260505095036 | 69 | 85 | 6.1 | 9.6 | 0.00 | 0.00 | 0.00 | 57 | 1009.7 |
| 20260505094935 | 69 | 74 | 6.1 | 9.6 | 0.00 | 0.00 | 0.00 | 57 | 1009.7 |
| 20260505094833 | 69 | 72 | 5.2 | 9.6 | 0.00 | 0.00 | 0.00 | 58 | 1009.8 |
| 20260505094742 | 69 | 83 | 5.2 | 7.0 | 0.00 | 0.00 | 0.00 | 58 | 1009.7 |
| 20260505094709 | 69 | 68 | 3.5 | 7.0 | 0.00 | 0.00 | 0.00 | 58 | 1009.8 |
| 20260505094530 | 69 | 63 | 0.9 | 6.1 | 0.00 | 0.00 | 0.00 | 58 | 1009.8 |
| 20260505094428 | 69 | 60 | 0.0 | 5.2 | 0.00 | 0.00 | 0.00 | 59 | 1009.8 |
| 20260505094329 | 69 | 302 | 0.0 | 5.2 | 0.00 | 0.00 | 0.00 | 59 | 1009.8 |
| 20260505094227 | 68 | 26 | 0.0 | 5.2 | 0.00 | 0.00 | 0.00 | 61 | 1009.8 |
| 20260505094127 | 68 | 64 | 0.9 | 5.2 | 0.00 | 0.00 | 0.00 | 61 | 1009.8 |
| 20260505094025 | 68 | 64 | 0.9 | 7.8 | 0.00 | 0.00 | 0.00 | 60 | 1009.9 |
| 20260505093923 | 68 | 85 | 1.7 | 7.8 | 0.00 | 0.00 | 0.00 | 60 | 1009.8 |
| 20260505093822 | 67 | 84 | 3.5 | 7.8 | 0.00 | 0.00 | 0.00 | 59 | 1009.9 |
| 20260505093722 | 67 | 85 | 3.5 | 7.8 | 0.00 | 0.00 | 0.00 | 58 | 1009.9 |
| 20260505093620 | 67 | 65 | 2.6 | 7.8 | 0.00 | 0.00 | 0.00 | 58 | 1009.9 |
| 20260505093518 | 68 | 70 | 2.6 | 7.8 | 0.00 | 0.00 | 0.00 | 58 | 1009.9 |
| 20260505093415 | 68 | 67 | 2.6 | 7.8 | 0.00 | 0.00 | 0.00 | 59 | 1010.0 |
| 20260505093316 | 68 | 74 | 3.5 | 7.8 | 0.00 | 0.00 | 0.00 | 59 | 1010.0 |
| 20260505093214 | 68 | 74 | 4.3 | 7.8 | 0.00 | 0.00 | 0.00 | 60 | 1010.0 |
| 20260505093113 | 68 | 78 | 4.3 | 7.8 | 0.00 | 0.00 | 0.00 | 61 | 1010.0 |
| 20260505093011 | 68 | 87 | 4.3 | 7.8 | 0.00 | 0.00 | 0.00 | 61 | 1010.0 |
| 20260505092910 | 68 | 68 | 3.5 | 7.8 | 0.00 | 0.00 | 0.00 | 60 | 1010.0 |
| 20260505092808 | 68 | 80 | 0.9 | 7.8 | 0.00 | 0.00 | 0.00 | 60 | 1010.0 |
| 20260505092708 | 68 | 83 | 0.9 | 7.8 | 0.00 | 0.00 | 0.00 | 61 | 1010.0 |
| 20260505092607 | 68 | 60 | 0.9 | 7.8 | 0.00 | 0.00 | 0.00 | 61 | 1010.0 |
| 20260505092506 | 68 | 60 | 5.2 | 7.8 | 0.00 | 0.00 | 0.00 | 60 | 1010.0 |
| 20260505092404 | 68 | 71 | 4.3 | 7.8 | 0.00 | 0.00 | 0.00 | 60 | 1010.0 |
| 20260505092305 | 68 | 78 | 1.7 | 7.8 | 0.00 | 0.00 | 0.00 | 60 | 1010.0 |